W2GRK-15 Weather Reports


Display with metric or nautical units.
time (UTC)temp
F
wind
direction
speed
MPH
gust
MPH
rain 1hr
in
rain 24hr
in
rain mn
in
humidity
%
barometer
mb
20260905061725 73 309 1.0 2.0 0.00 0.01 0.00 63 1012.1
20260905061621 73 314 2.0 3.0 0.00 0.01 0.00 63 1012.1
20260905061516 73 320 0.0 1.0 0.00 0.01 0.00 63 1012.0
20260905061428 73 320 1.0 1.0 0.00 0.01 0.00 63 1012.2
20260905061323 73 320 1.0 1.0 0.00 0.01 0.00 63 1012.1
20260905061239 73 320 0.0 1.0 0.00 0.01 0.00 63 1012.2
20260905061130 73 320 1.0 1.0 0.00 0.01 0.00 63 1012.2
20260905061045 73 319 1.0 2.0 0.00 0.01 0.00 63 1012.2
20260905060922 73 320 0.0 1.0 0.00 0.01 0.00 63 1012.1
20260905060835 73 320 0.0 1.0 0.00 0.01 0.00 63 1012.2
20260905060727 73 320 0.0 1.0 0.00 0.01 0.00 63 1012.4
20260905060622 73 320 1.0 1.0 0.00 0.01 0.00 63 1012.2
20260905060517 73 320 1.0 2.0 0.00 0.01 0.00 63 1012.1
20260905060428 73 0.0 0.0 0.00 0.01 0.00 63 1012.4
20260905060324 73 320 0.0 1.0 0.00 0.01 0.00 63 1012.2
20260905060219 73 320 0.0 1.0 0.00 0.01 0.00 63 1012.2
20260905060130 73 320 0.0 1.0 0.00 0.01 0.00 63 1012.1
20260905060026 73 320 1.0 2.0 0.00 0.01 0.00 63 1012.4
20260905055921 73 0.0 0.0 0.00 0.01 0.00 63 1012.2
20260905055837 73 322 0.0 1.0 0.00 0.01 0.00 63 1012.0
20260905055729 73 322 1.0 1.0 0.00 0.01 0.00 63 1012.2
20260905055624 73 322 1.0 1.0 0.00 0.01 0.00 63 1012.3
20260905055540 73 322 1.0 1.0 0.00 0.01 0.00 63 1012.3
20260905055435 73 0.0 0.0 0.00 0.01 0.00 63 1012.1
20260905055327 73 323 0.0 1.0 0.00 0.01 0.00 63 1012.1
20260905055242 73 323 1.0 2.0 0.00 0.01 0.00 63 1012.2
20260905055118 73 0.0 0.0 0.00 0.01 0.00 63 1012.2
20260905055030 73 323 0.0 1.0 0.00 0.01 0.00 63 1012.3
20260905054925 73 319 2.0 2.0 0.00 0.01 0.00 63 1012.2
20260905054821 73 299 0.0 1.0 0.00 0.01 0.00 63 1012.2
20260905054716 73 0.0 0.0 0.00 0.01 0.00 63 1012.2
20260905054628 73 299 0.0 1.0 0.00 0.01 0.00 63 1012.5
20260905054523 73 299 0.0 1.0 0.00 0.01 0.00 63 1012.3
20260905054419 73 295 1.0 2.0 0.00 0.01 0.00 63 1012.3
20260905054331 73 0.0 0.0 0.00 0.01 0.00 63 1012.2
20260905054246 73 275 0.0 1.0 0.00 0.01 0.00 63 1012.4
20260905054121 74 0.0 0.0 0.00 0.01 0.00 63 1012.5
20260905054017 74 0.0 0.0 0.00 0.01 0.00 63 1012.2
20260905053928 74 275 0.0 1.0 0.00 0.01 0.00 63 1012.3
20260905053824 74 275 1.0 2.0 0.00 0.01 0.00 63 1012.3
20260905053720 74 274 1.0 2.0 0.00 0.01 0.00 63 1012.4
20260905053635 74 278 1.0 2.0 0.00 0.01 0.00 63 1012.4
20260905053547 74 302 1.0 1.0 0.00 0.01 0.00 62 1012.4
20260905053422 74 0.0 0.0 0.00 0.01 0.00 62 1012.4
20260905053318 74 0.0 0.0 0.00 0.01 0.00 63 1012.5
20260905053229 74 0.0 0.0 0.00 0.01 0.00 63 1012.5
20260905053125 74 0.0 0.0 0.00 0.01 0.00 62 1012.5
20260905053021 74 0.0 0.0 0.00 0.01 0.00 62 1012.3
20260905052916 74 0.0 0.0 0.00 0.01 0.00 62 1012.4
20260905052828 74 0.0 0.0 0.00 0.01 0.00 62 1012.5
20260905052743 74 0.0 0.0 0.00 0.01 0.00 62 1012.5
20260905052619 74 0.0 0.0 0.00 0.01 0.00 62 1012.6
20260905052531 74 302 0.0 1.0 0.00 0.01 0.00 62 1012.4
20260905052426 74 302 1.0 1.0 0.00 0.01 0.00 62 1012.6
20260905052342 74 301 1.0 1.0 0.00 0.01 0.00 62 1012.5
20260905052217 74 301 1.0 1.0 0.00 0.01 0.00 62 1012.6
20260905052129 74 301 0.0 1.0 0.00 0.01 0.00 62 1012.5
20260905052105 74 301 0.0 1.0 0.00 0.01 0.00 62 1012.6
20260905051920 74 301 0.0 1.0 0.00 0.01 0.00 62 1012.5
20260905051816 74 301 0.0 1.0 0.00 0.01 0.00 62 1012.6
20260905051727 74 0.0 0.0 0.00 0.01 0.00 62 1012.8
20260905051623 74 301 0.0 1.0 0.00 0.01 0.00 62 1012.8
20260905051519 74 301 1.0 1.0 0.00 0.01 0.00 62 1012.6
20260905051430 74 301 0.0 1.0 0.00 0.01 0.00 62 1012.7
20260905051346 74 301 1.0 2.0 0.00 0.01 0.00 63 1012.8
20260905051221 74 301 1.0 1.0 0.00 0.01 0.00 63 1012.6
20260905051137 74 301 1.0 2.0 0.00 0.01 0.00 62 1012.8
20260905051028 74 298 2.0 2.0 0.00 0.01 0.00 62 1012.9
20260905050924 74 286 1.0 2.0 0.00 0.01 0.00 62 1012.7
20260905050819 74 289 2.0 3.0 0.00 0.01 0.00 63 1012.7
20260905050731 74 305 1.0 2.0 0.00 0.01 0.00 63 1012.8
20260905050627 74 323 0.0 1.0 0.00 0.01 0.00 62 1012.7
20260905050522 74 324 0.0 1.0 0.00 0.01 0.00 63 1012.8
20260905050417 74 323 1.0 1.0 0.00 0.01 0.00 62 1012.8
20260905050329 74 324 1.0 1.0 0.00 0.01 0.00 62 1012.7
20260905050244 74 324 1.0 2.0 0.00 0.01 0.00 63 1012.8
20260905050120 74 325 2.0 3.0 0.00 0.01 0.00 63 1012.7
20260905050031 74 319 2.0 4.0 0.00 0.01 0.00 63 1012.8
20260905045926 74 285 1.0 1.0 0.00 0.01 0.00 62 1012.8
20260905045822 74 285 0.0 1.0 0.00 0.01 0.00 62 1012.8
20260905045717 74 0.0 0.0 0.00 0.01 0.00 62 1012.7
20260905045629 74 288 1.0 2.0 0.00 0.01 0.00 62 1012.8
20260905045525 74 295 1.0 1.0 0.00 0.01 0.00 62 1012.9
20260905045420 74 295 0.0 1.0 0.00 0.01 0.00 62 1013.1
20260905045316 74 295 0.0 2.0 0.00 0.01 0.00 62 1013.0
20260905045227 74 297 2.0 3.0 0.00 0.01 0.00 62 1013.0
20260905045123 74 295 2.0 2.0 0.00 0.01 0.00 62 1012.8
20260905045018 74 286 1.0 1.0 0.00 0.01 0.00 62 1012.7
20260905044930 74 288 1.0 2.0 0.00 0.01 0.00 62 1012.7
20260905044825 74 292 0.0 1.0 0.00 0.01 0.00 62 1012.8
20260905044721 74 294 2.0 3.0 0.00 0.01 0.00 62 1012.9
20260905044616 74 307 1.0 2.0 0.00 0.01 0.00 62 1012.7
20260905044528 74 332 1.0 2.0 0.00 0.01 0.00 62 1012.9
20260905044424 74 325 2.0 3.0 0.00 0.01 0.00 62 1012.9
20260905044339 74 305 1.0 2.0 0.00 0.01 0.00 62 1012.8
20260905044231 74 316 1.0 1.0 0.00 0.01 0.00 62 1012.7
20260905044126 74 316 1.0 2.0 0.00 0.01 0.00 62 1012.7
20260905044022 74 311 2.0 3.0 0.00 0.01 0.00 62 1012.6
20260905043918 74 263 1.0 1.0 0.00 0.01 0.00 61 1012.8
20260905043829 74 263 0.0 1.0 0.00 0.01 0.00 62 1012.7
20260905043725 74 263 1.0 1.0 0.00 0.01 0.00 61 1012.7
20260905043640 74 263 0.0 1.0 0.00 0.01 0.00 61 1012.7
20260905043536 74 262 1.0 1.0 0.00 0.01 0.00 61 1012.8
20260905043428 74 253 1.0 2.0 0.00 0.01 0.00 61 1012.9
20260905043323 74 302 1.0 2.0 0.00 0.01 0.00 62 1012.9
20260905043219 75 314 1.0 2.0 0.00 0.01 0.00 62 1012.7
20260905043130 75 316 1.0 3.0 0.00 0.01 0.00 62 1012.8
20260905043026 75 298 1.0 2.0 0.00 0.01 0.00 62 1012.9
20260905042921 75 286 1.0 1.0 0.00 0.01 0.00 62 1012.9
20260905042837 75 303 1.0 2.0 0.00 0.01 0.00 62 1012.7
20260905042728 75 318 0.0 1.0 0.00 0.01 0.00 62 1012.7
20260905042624 75 318 1.0 2.0 0.00 0.01 0.00 62 1012.7
20260905042520 75 327 2.0 2.0 0.00 0.01 0.00 61 1012.7
20260905042415 75 337 1.0 3.0 0.00 0.01 0.00 61 1012.7
20260905042327 75 313 1.0 1.0 0.00 0.01 0.00 61 1012.9
20260905042222 75 313 1.0 2.0 0.00 0.01 0.00 62 1012.9
20260905042158 75 308 2.0 2.0 0.00 0.01 0.00 62 1012.8
20260905042050 75 289 2.0 3.0 0.00 0.01 0.00 61 1012.7
20260905041925 75 292 1.0 1.0 0.00 0.01 0.00 61 1012.8
20260905041820 75 293 1.0 2.0 0.00 0.01 0.00 61 1012.7
20260905041716 75 297 2.0 2.0 0.00 0.01 0.00 61 1012.8
20260905041628 75 312 2.0 2.0 0.00 0.01 0.00 61 1012.8
20260905041524 75 318 1.0 2.0 0.00 0.01 0.00 61 1012.8
20260905041451 75 310 2.0 3.0 0.00 0.01 0.00 61 1012.9
20260905041226 75 312 2.0 3.0 0.00 0.01 0.00 61 1012.8
20260905041142 75 322 2.0 4.0 0.00 0.01 0.00 61 1012.8
20260905041017 75 285 1.0 1.0 0.00 0.01 0.00 61 1012.9
20260905040929 75 295 1.0 2.0 0.00 0.01 0.00 61 1012.9
20260905040844 75 315 1.0 2.0 0.00 0.01 0.00 61 1013.0
20260905040720 75 313 0.0 1.0 0.00 0.01 0.00 61 1012.8
20260905040615 75 312 0.0 1.0 0.00 0.01 0.00 61 1012.8
20260905040527 75 312 1.0 2.0 0.00 0.01 0.00 61 1012.8
20260905040422 75 312 0.0 1.0 0.00 0.01 0.00 61 1012.9
20260905040318 75 312 1.0 1.0 0.00 0.01 0.00 61 1013.0
20260905040230 75 312 1.0 2.0 0.00 0.01 0.00 60 1012.8
20260905040125 75 309 2.0 3.0 0.00 0.01 0.00 61 1013.0
20260905040021 75 278 3.0 7.0 0.00 0.01 0.01 60 1012.8
20260905035916 75 330 1.0 2.0 0.00 0.01 0.01 60 1012.8
20260905035828 75 315 2.0 6.0 0.00 0.01 0.01 60 1012.9
20260905035723 75 309 1.0 1.0 0.00 0.01 0.01 60 1013.1
20260905035639 75 308 1.0 2.0 0.00 0.01 0.01 60 1012.9
20260905035531 75 305 2.0 3.0 0.00 0.01 0.01 60 1012.9
20260905035426 75 278 1.0 2.0 0.00 0.01 0.01 60 1013.0
20260905035402 75 268 1.0 1.0 0.00 0.01 0.01 60 1013.0
20260905035217 75 269 0.0 1.0 0.00 0.01 0.01 60 1012.9
20260905035149 75 273 2.0 2.0 0.00 0.01 0.01 60 1013.1
20260905035044 75 312 3.0 4.0 0.00 0.01 0.01 60 1012.8
20260905034919 75 254 1.0 1.0 0.00 0.01 0.01 60 1012.8
20260905034831 75 254 1.0 2.0 0.00 0.01 0.01 60 1012.9
20260905034726 75 282 1.0 2.0 0.00 0.01 0.01 60 1012.9
20260905034622 75 312 1.0 2.0 0.00 0.01 0.01 60 1012.9
20260905034517 75 304 1.0 1.0 0.00 0.01 0.01 60 1013.1
20260905034428 75 299 2.0 3.0 0.00 0.01 0.01 60 1012.9
20260905034324 75 240 1.0 2.0 0.00 0.01 0.01 59 1012.8
20260905034220 75 234 1.0 2.0 0.00 0.01 0.01 60 1012.9
20260905034115 75 242 2.0 3.0 0.00 0.01 0.01 60 1013.0
20260905034027 75 314 1.0 2.0 0.00 0.01 0.01 60 1013.0
20260905033922 75 318 2.0 3.0 0.00 0.01 0.01 59 1013.0
20260905033818 75 309 2.0 4.0 0.00 0.01 0.01 60 1012.9
20260905033750 75 275 1.0 3.0 0.00 0.01 0.01 60 1013.0
20260905033625 75 300 1.0 2.0 0.00 0.01 0.01 60 1012.8
20260905033601 75 316 3.0 4.0 0.00 0.01 0.01 59 1012.7
20260905033417 75 272 1.0 3.0 0.00 0.01 0.01 60 1012.9
20260905033328 75 261 2.0 2.0 0.00 0.01 0.01 59 1012.9
20260905033224 75 262 1.0 1.0 0.00 0.01 0.01 59 1012.8
20260905033139 75 271 2.0 2.0 0.00 0.01 0.01 60 1012.7
20260905033031 75 290 2.0 2.0 0.00 0.01 0.01 60 1012.8
20260905032926 75 298 3.0 4.0 0.00 0.01 0.01 59 1012.9
20260905032822 75 294 1.0 4.0 0.00 0.01 0.01 60 1012.5
20260905032717 75 261 1.0 2.0 0.00 0.01 0.01 59 1012.6
20260905032649 75 257 1.0 2.0 0.00 0.01 0.01 59 1012.9
20260905032524 75 254 2.0 2.0 0.00 0.01 0.01 59 1012.8
20260905032420 75 292 1.0 2.0 0.00 0.01 0.01 59 1012.8
20260905032316 75 320 3.0 6.0 0.00 0.01 0.01 59 1012.9
20260905032227 75 322 3.0 6.0 0.00 0.01 0.01 59 1012.9
20260905032123 75 294 2.0 2.0 0.00 0.01 0.01 59 1012.8
20260905032019 75 280 3.0 4.0 0.00 0.01 0.01 59 1012.8
20260905031930 75 303 4.0 9.0 0.00 0.01 0.01 59 1012.9
20260905031826 75 310 3.0 6.0 0.00 0.01 0.01 59 1012.7
20260905031721 75 240 2.0 3.0 0.00 0.01 0.01 60 1012.7
20260905031637 75 255 1.0 2.0 0.00 0.01 0.01 59 1012.8
20260905031528 75 256 1.0 1.0 0.00 0.01 0.01 60 1012.8
20260905031424 75 256 0.0 1.0 0.00 0.01 0.01 60 1012.9
20260905031319 75 256 1.0 2.0 0.00 0.01 0.01 60 1012.8
20260905031231 75 251 2.0 3.0 0.00 0.01 0.01 60 1012.8
20260905031126 75 296 1.0 3.0 0.00 0.01 0.01 60 1012.8
20260905031022 75 332 3.0 3.0 0.00 0.01 0.01 60 1012.9
20260905030917 75 324 1.0 2.0 0.00 0.01 0.01 60 1012.8
20260905030849 75 318 1.0 2.0 0.00 0.01 0.01 60 1012.7
20260905030725 75 312 1.0 2.0 0.00 0.01 0.01 60 1013.0
20260905030620 75 301 1.0 2.0 0.00 0.01 0.01 60 1012.9
20260905030516 75 248 1.0 2.0 0.00 0.01 0.01 60 1012.7
20260905030427 75 332 1.0 1.0 0.00 0.01 0.01 60 1012.7
20260905030324 75 333 1.0 1.0 0.00 0.01 0.01 60 1012.8
20260905030218 75 333 1.0 1.0 0.00 0.01 0.01 60 1012.8
20260905030130 75 333 1.0 1.0 0.00 0.01 0.01 60 1012.7
20260905030026 75 333 1.0 1.0 0.00 0.01 0.01 60 1012.7
20260905025921 75 333 1.0 1.0 0.00 0.01 0.01 60 1012.8
20260905025817 75 333 0.0 1.0 0.00 0.01 0.01 60 1012.8
20260905025728 75 333 0.0 1.0 0.00 0.01 0.01 60 1012.7
20260905025624 75 333 1.0 1.0 0.00 0.01 0.01 60 1012.8
20260905025519 75 0.0 0.0 0.00 0.01 0.01 60 1012.9
20260905025435 75 333 1.0 2.0 0.00 0.01 0.01 60 1012.7
20260905025327 75 341 1.0 2.0 0.00 0.01 0.01 60 1012.6
20260905025222 75 295 0.0 1.0 0.00 0.01 0.01 60 1012.8
20260905025137 75 292 1.0 2.0 0.00 0.01 0.01 60 1012.6
20260905025029 75 285 2.0 3.0 0.00 0.01 0.01 60 1012.8
20260905024924 76 297 1.0 2.0 0.00 0.01 0.01 60 1012.8
20260905024821 76 0.0 0.0 0.00 0.01 0.01 60 1012.7
20260905024716 76 297 0.0 1.0 0.00 0.01 0.01 60 1012.8
20260905024627 76 0.0 0.0 0.00 0.01 0.01 60 1012.7
20260905024523 76 297 1.0 2.0 0.00 0.01 0.01 60 1012.7
20260905024419 76 297 1.0 2.0 0.00 0.01 0.01 60 1012.7
20260905024410 76 296 1.0 1.0 0.00 0.01 0.01 61 1012.8
20260905024225 76 295 1.0 1.0 0.00 0.01 0.01 60 1012.8
20260905024121 76 299 1.0 2.0 0.00 0.01 0.01 60 1012.7
20260905024017 76 299 2.0 3.0 0.00 0.01 0.01 60 1012.7
20260905023928 76 291 2.0 4.0 0.00 0.01 0.01 60 1012.9
20260905023824 76 234 1.0 1.0 0.00 0.01 0.01 60 1012.8
20260905023720 76 234 1.0 1.0 0.00 0.01 0.01 60 1012.9
20260905023615 76 233 1.0 2.0 0.00 0.01 0.01 60 1012.7
20260905023527 76 302 1.0 2.0 0.00 0.01 0.01 60 1012.7
20260905023423 76 313 1.0 2.0 0.00 0.01 0.01 60 1012.6
20260905023318 76 313 1.0 1.0 0.00 0.01 0.01 60 1012.7
20260905023229 76 309 2.0 3.0 0.00 0.01 0.01 60 1012.6
20260905023125 76 300 3.0 6.0 0.00 0.01 0.01 60 1012.6
20260905023040 76 306 3.0 4.0 0.00 0.01 0.01 60 1012.7
20260905022915 76 309 1.0 3.0 0.00 0.01 0.01 60 1012.9
20260905022827 76 290 2.0 4.0 0.00 0.01 0.01 60 1012.8
20260905022743 76 311 3.0 7.0 0.00 0.01 0.01 60 1012.7
20260905022618 76 262 3.0 3.0 0.00 0.01 0.01 60 1012.7
20260905022530 76 311 3.0 4.0 0.00 0.01 0.01 60 1012.9
20260905022426 76 320 2.0 2.0 0.00 0.01 0.01 60 1012.7
20260905022341 76 331 3.0 4.0 0.00 0.01 0.01 60 1012.8
20260905022217 76 298 2.0 3.0 0.00 0.01 0.01 60 1012.6
20260905022128 76 300 2.0 3.0 0.00 0.01 0.01 60 1012.7
20260905022024 76 284 1.0 3.0 0.00 0.01 0.01 60 1012.9
20260905021919 76 291 2.0 2.0 0.00 0.01 0.01 60 1012.7
20260905021851 76 239 2.0 3.0 0.00 0.01 0.01 60 1012.8
20260905021726 76 258 2.0 3.0 0.00 0.01 0.01 61 1012.8
20260905021622 76 292 1.0 2.0 0.00 0.01 0.01 61 1012.7
20260905021517 76 305 2.0 3.0 0.00 0.01 0.01 60 1012.8
20260905021429 76 301 3.0 4.0 0.00 0.01 0.01 60 1012.7
20260905021324 76 300 2.0 8.0 0.00 0.01 0.01 60 1012.8
20260905021240 76 297 2.0 3.0 0.00 0.01 0.01 60 1012.8
20260905021115 76 306 3.0 3.0 0.00 0.01 0.01 60 1013.0
20260905021027 76 271 1.0 3.0 0.00 0.01 0.01 60 1012.9
20260905020923 76 266 1.0 2.0 0.00 0.01 0.01 61 1012.8
20260905020818 76 266 1.0 1.0 0.00 0.01 0.01 61 1012.8
20260905020730 76 266 1.0 2.0 0.00 0.01 0.01 61 1012.8
20260905020626 76 265 1.0 2.0 0.00 0.01 0.01 61 1012.9
20260905020521 76 265 1.0 2.0 0.00 0.01 0.01 61 1013.0
20260905020416 76 283 2.0 2.0 0.00 0.01 0.01 61 1012.9
20260905020328 76 297 1.0 1.0 0.00 0.01 0.01 61 1012.9
20260905020224 76 297 1.0 1.0 0.00 0.01 0.01 61 1012.8
20260905020120 76 297 1.0 1.0 0.00 0.01 0.01 61 1012.8
20260905020015 75 297 1.0 1.0 0.00 0.01 0.01 61 1013.0
20260905015927 75 297 1.0 2.0 0.00 0.01 0.01 61 1012.9
20260905015822 75 297 0.0 1.0 0.00 0.01 0.01 62 1012.8
20260905015718 75 298 1.0 1.0 0.00 0.01 0.01 62 1012.9
20260905015630 75 298 0.0 1.0 0.00 0.01 0.01 61 1013.1
20260905015525 75 298 0.0 1.0 0.00 0.01 0.01 61 1013.1
20260905015421 75 298 0.0 1.0 0.00 0.01 0.01 62 1013.0
20260905015316 75 298 0.0 1.0 0.00 0.01 0.01 62 1013.1
20260905015228 75 298 0.0 1.0 0.00 0.01 0.01 61 1013.0
20260905015123 75 298 0.0 1.0 0.00 0.01 0.01 61 1013.1
20260905015019 75 298 0.0 1.0 0.00 0.01 0.01 61 1012.9
20260905014931 75 298 0.0 1.0 0.00 0.01 0.01 62 1013.2
20260905014846 75 298 0.0 1.0 0.00 0.01 0.01 62 1013.1
20260905014722 75 298 0.0 1.0 0.00 0.01 0.01 62 1013.0
20260905014617 75 298 1.0 2.0 0.00 0.01 0.01 62 1013.0
20260905014529 75 298 2.0 3.0 0.00 0.01 0.01 62 1012.9
20260905014425 75 298 0.0 1.0 0.00 0.01 0.01 62 1013.0
20260905014320 75 297 1.0 2.0 0.00 0.01 0.01 62 1013.0
20260905014215 75 299 1.0 2.0 0.00 0.01 0.01 62 1012.9
20260905014127 75 303 1.0 1.0 0.00 0.01 0.01 62 1013.1
20260905014023 75 303 1.0 1.0 0.00 0.01 0.01 63 1013.0
20260905013918 75 303 1.0 1.0 0.00 0.01 0.01 62 1013.0
20260905013830 75 304 1.0 2.0 0.00 0.01 0.01 62 1013.0
20260905013725 75 304 1.0 2.0 0.00 0.01 0.01 63 1013.1
20260905013621 75 304 1.0 1.0 0.00 0.01 0.01 62 1013.0
20260905013516 75 305 1.0 1.0 0.00 0.01 0.01 63 1012.8
20260905013428 75 305 0.0 1.0 0.00 0.01 0.01 62 1012.9
20260905013344 75 0.0 0.0 0.00 0.01 0.01 62 1012.9
20260905013219 75 0.0 0.0 0.00 0.01 0.01 62 1012.9
20260905013130 75 305 0.0 1.0 0.00 0.01 0.01 63 1012.8
20260905013025 75 305 0.0 1.0 0.00 0.01 0.01 63 1012.8
20260905012921 75 305 0.0 1.0 0.00 0.01 0.01 63 1012.9
20260905012856 75 0.0 0.0 0.00 0.01 0.01 63 1012.8
20260905012748 75 305 0.0 1.0 0.00 0.01 0.01 63 1013.0
20260905012623 75 304 1.0 2.0 0.00 0.01 0.01 63 1013.0
20260905012539 75 300 0.0 1.0 0.00 0.01 0.01 63 1013.1
20260905012430 75 300 1.0 1.0 0.00 0.01 0.01 63 1012.9
20260905012325 75 300 1.0 1.0 0.00 0.01 0.01 63 1013.1
20260905012221 75 300 1.0 1.0 0.00 0.01 0.01 64 1013.0
20260905012116 75 300 1.0 3.0 0.00 0.01 0.01 64 1013.0
20260905012028 75 300 1.0 1.0 0.00 0.01 0.01 64 1013.1
20260905011943 75 300 1.0 2.0 0.00 0.01 0.01 63 1012.9
20260905011838 75 0.0 0.0 0.00 0.01 0.01 63 1013.0
20260905011730 75 0.0 0.0 0.00 0.01 0.01 63 1012.9
20260905011625 75 300 0.0 1.0 0.00 0.01 0.01 63 1013.1
20260905011521 75 0.0 0.0 0.00 0.01 0.01 63 1013.1
20260905011416 75 0.0 0.0 0.00 0.01 0.01 63 1013.0
20260905011328 75 300 0.0 1.0 0.00 0.01 0.01 63 1012.9
20260905011224 75 0.0 0.0 0.00 0.01 0.01 63 1013.0
20260905011119 75 299 0.0 1.0 0.00 0.01 0.01 63 1013.0
20260905011030 75 0.0 0.0 0.00 0.01 0.01 63 1013.0
20260905010926 75 299 0.0 1.0 0.00 0.01 0.01 63 1013.2
20260905010822 75 299 0.0 1.0 0.00 0.01 0.01 63 1012.9
20260905010717 75 0.0 0.0 0.00 0.01 0.01 63 1013.0
20260905010649 75 299 0.0 1.0 0.00 0.01 0.01 63 1013.0
20260905010524 76 299 0.0 1.0 0.00 0.01 0.01 63 1012.8
20260905010500 76 0.0 0.0 0.00 0.01 0.01 63 1012.9
20260905010316 76 299 0.0 1.0 0.00 0.01 0.01 63 1012.9
20260905010227 76 299 1.0 1.0 0.00 0.01 0.01 63 1012.8
20260905010123 76 299 0.0 1.0 0.00 0.01 0.01 62 1012.6
20260905010018 76 299 0.0 1.0 0.00 0.01 0.01 63 1012.6
20260905005930 76 299 0.0 1.0 0.00 0.01 0.01 63 1012.7
20260905005825 76 299 1.0 1.0 0.00 0.01 0.01 63 1012.6
20260905005720 76 299 0.0 1.0 0.00 0.01 0.01 63 1012.4
20260905005616 76 299 1.0 2.0 0.00 0.01 0.01 63 1012.8
20260905005548 76 297 1.0 2.0 0.00 0.01 0.01 63 1012.8
20260905005423 76 295 1.0 1.0 0.00 0.01 0.01 64 1012.7
20260905005319 76 295 1.0 1.0 0.00 0.01 0.01 64 1012.7
20260905005230 76 295 1.0 1.0 0.00 0.01 0.01 63 1012.7
20260905005206 76 295 1.0 1.0 0.00 0.01 0.01 64 1012.6
20260905005022 76 295 1.0 1.0 0.00 0.01 0.01 64 1012.6
20260905004917 76 295 1.0 1.0 0.00 0.01 0.01 64 1012.8
20260905004829 76 296 1.0 1.0 0.00 0.01 0.01 64 1012.8
20260905004724 76 295 1.0 2.0 0.00 0.01 0.01 65 1012.6
20260905004620 76 296 1.0 1.0 0.00 0.01 0.01 65 1012.7
20260905004516 76 297 1.0 1.0 0.00 0.01 0.01 64 1012.9
20260905004427 76 297 1.0 1.0 0.00 0.01 0.01 65 1012.6
20260905004343 76 297 1.0 1.0 0.00 0.01 0.01 65 1012.8
20260905004218 76 297 1.0 1.0 0.00 0.01 0.01 65 1012.9
20260905004130 76 297 1.0 1.0 0.00 0.01 0.01 65 1012.9
20260905004026 76 297 1.0 1.0 0.00 0.01 0.01 64 1012.8
20260905003941 76 297 1.0 1.0 0.00 0.01 0.01 64 1012.9
20260905003816 76 297 1.0 1.0 0.00 0.01 0.01 64 1012.9
20260905003728 76 298 1.0 2.0 0.00 0.01 0.01 64 1012.8
20260905003624 76 297 1.0 1.0 0.00 0.01 0.01 64 1012.7
20260905003559 76 297 1.0 1.0 0.00 0.01 0.01 64 1012.7
20260905003430 76 298 0.0 1.0 0.00 0.01 0.01 63 1012.8
20260905003326 76 0.0 0.0 0.00 0.01 0.01 63 1012.7
20260905003222 76 0.0 0.0 0.00 0.01 0.01 64 1012.7
20260905003137 76 0.0 0.0 0.00 0.01 0.01 63 1012.7
20260905003029 76 0.0 0.0 0.00 0.01 0.01 62 1012.6
20260905002924 76 298 0.0 1.0 0.00 0.01 0.01 61 1012.6
20260905002820 76 298 0.0 1.0 0.00 0.01 0.01 60 1012.6
20260905002715 76 298 0.0 1.0 0.00 0.01 0.01 60 1012.7
20260905002647 76 298 0.0 1.0 0.00 0.01 0.01 59 1012.5
20260905002523 76 0.0 0.0 0.00 0.01 0.01 59 1012.6
20260905002438 76 0.0 0.0 0.00 0.01 0.01 59 1012.6
20260905002330 76 0.0 0.0 0.00 0.01 0.01 59 1012.6
20260905002225 76 0.0 0.0 0.00 0.01 0.01 59 1012.4
20260905002121 76 0.0 0.0 0.00 0.01 0.01 58 1012.5
20260905002016 76 0.0 0.0 0.00 0.01 0.01 59 1012.6
20260905001928 76 0.0 0.0 0.00 0.01 0.01 59 1012.6
20260905001904 76 0.0 0.0 0.00 0.01 0.01 58 1012.5
20260905001719 77 0.0 0.0 0.00 0.01 0.01 59 1012.5
20260905001631 77 0.0 0.0 0.00 0.01 0.01 58 1012.5
20260905001547 77 0.0 0.0 0.00 0.01 0.01 59 1012.6
20260905001422 77 0.0 0.0 0.00 0.01 0.01 58 1012.7
20260905001317 77 0.0 0.0 0.00 0.01 0.01 59 1012.7
20260905001228 77 0.0 0.0 0.00 0.01 0.01 59 1012.5
20260905001124 77 0.0 0.0 0.00 0.01 0.01 59 1012.6
20260905001039 77 0.0 0.0 0.00 0.01 0.01 59 1012.5
20260905000950 77 0.0 0.0 0.00 0.01 0.01 59 1012.4
20260905000825 77 0.0 0.0 0.00 0.01 0.01 59 1012.5
20260905000721 77 0.0 0.0 0.00 0.01 0.01 59 1012.6
20260905000616 77 0.0 0.0 0.00 0.01 0.01 59 1012.6
20260905000528 77 297 0.0 1.0 0.00 0.01 0.01 58 1012.6
20260905000424 77 0.0 0.0 0.00 0.01 0.01 58 1012.5
20260905000319 77 0.0 0.0 0.00 0.01 0.01 59 1012.4
20260905000231 77 297 1.0 1.0 0.00 0.01 0.01 58 1012.5
20260905000146 78 297 1.0 1.0 0.00 0.01 0.01 58 1012.3
20260905000022 78 297 1.0 1.0 0.00 0.01 0.01 57 1012.3
20260904235917 78 0.0 0.0 0.00 0.01 0.01 57 1012.6
20260904235829 78 297 0.0 1.0 0.00 0.01 0.01 57 1012.5
20260904235724 78 0.0 0.0 0.00 0.01 0.01 57 1012.6
20260904235619 78 0.0 0.0 0.00 0.01 0.01 58 1012.7
20260904235515 78 0.0 0.0 0.00 0.01 0.01 58 1012.6
20260904235427 78 297 0.0 1.0 0.00 0.01 0.01 57 1012.6
20260904235322 78 297 1.0 1.0 0.00 0.01 0.01 57 1012.6
20260904235237 78 297 1.0 1.0 0.00 0.01 0.01 57 1012.4
20260904235129 78 297 0.0 1.0 0.00 0.01 0.01 57 1012.4
20260904235025 78 297 0.0 1.0 0.00 0.01 0.01 56 1012.3
20260904234920 78 0.0 0.0 0.00 0.01 0.01 56 1012.4
20260904234816 78 0.0 0.0 0.00 0.01 0.01 56 1012.4
20260904234727 78 297 0.0 1.0 0.00 0.01 0.01 56 1012.4
20260904234623 78 297 0.0 1.0 0.00 0.01 0.01 56 1012.4
20260904234518 79 297 0.0 1.0 0.00 0.01 0.01 56 1012.4
20260904234430 79 297 0.0 1.0 0.00 0.01 0.01 56 1012.3
20260904234325 79 297 0.0 1.0 0.00 0.01 0.01 55 1012.4
20260904234221 79 0.0 0.0 0.00 0.01 0.01 55 1012.4
20260904234137 79 0.0 0.0 0.00 0.01 0.01 55 1012.4
20260904234028 79 0.0 0.0 0.00 0.01 0.01 55 1012.2
20260904233924 79 0.0 0.0 0.00 0.01 0.01 54 1012.3
20260904233839 79 298 0.0 1.0 0.00 0.01 0.01 54 1012.2
20260904233715 79 298 0.0 1.0 0.00 0.01 0.01 54 1012.2
20260904233627 79 0.0 0.0 0.00 0.01 0.01 54 1012.2
20260904233522 79 0.0 0.0 0.00 0.01 0.01 54 1012.2
20260904233418 80 0.0 0.0 0.00 0.01 0.01 54 1012.2
20260904233329 80 0.0 0.0 0.00 0.01 0.01 54 1012.4
20260904233225 80 0.0 0.0 0.00 0.01 0.01 54 1012.5
20260904233140 80 298 0.0 1.0 0.00 0.01 0.01 54 1012.6
20260904233016 80 298 0.0 1.0 0.00 0.01 0.01 53 1012.4
20260904232927 80 297 0.0 1.0 0.00 0.01 0.01 53 1012.5
20260904232843 80 0.0 0.0 0.00 0.01 0.01 53 1012.3
20260904232718 80 297 0.0 1.0 0.00 0.01 0.01 53 1012.3
20260904232630 80 298 1.0 1.0 0.00 0.01 0.01 53 1012.5
20260904232525 80 298 1.0 2.0 0.00 0.01 0.01 53 1012.5
20260904232441 80 298 1.0 2.0 0.00 0.01 0.01 53 1012.2
20260904232316 80 247 0.0 1.0 0.00 0.01 0.01 53 1012.4
20260904232307 80 0.0 0.0 0.00 0.01 0.01 53 1012.4
20260904232122 80 246 0.0 1.0 0.00 0.01 0.01 52 1012.3
20260904232018 80 246 1.0 1.0 0.00 0.01 0.01 52 1012.5
20260904231929 81 246 1.0 2.0 0.00 0.01 0.01 52 1012.2
20260904231825 81 246 1.0 1.0 0.00 0.01 0.01 52 1012.1
20260904231720 81 246 0.0 1.0 0.00 0.01 0.01 52 1012.3
20260904231616 81 246 0.0 1.0 0.00 0.01 0.01 52 1012.3
20260904231527 81 246 1.0 1.0 0.00 0.01 0.01 52 1012.2
20260904231423 81 246 1.0 2.0 0.00 0.01 0.01 52 1012.3
20260904231318 81 243 2.0 2.0 0.00 0.01 0.01 51 1012.4
20260904231230 81 243 2.0 3.0 0.00 0.01 0.01 51 1012.3
20260904231145 81 286 2.0 3.0 0.00 0.01 0.01 51 1012.2
20260904231021 81 289 1.0 2.0 0.00 0.01 0.01 51 1012.2
20260904230917 81 273 1.0 2.0 0.00 0.01 0.01 51 1012.1
20260904230828 81 259 1.0 3.0 0.00 0.01 0.01 51 1012.3
20260904230744 81 287 2.0 3.0 0.00 0.01 0.01 51 1012.4
20260904230619 81 240 2.0 4.0 0.00 0.01 0.01 51 1012.4
20260904230530 82 257 2.0 3.0 0.00 0.01 0.01 51 1012.2
20260904230425 82 275 2.0 2.0 0.00 0.01 0.01 50 1012.3
20260904230319 82 255 1.0 1.0 0.00 0.01 0.01 50 1012.4
20260904230231 82 276 3.0 4.0 0.00 0.01 0.01 50 1012.3
20260904230126 82 251 3.0 4.0 0.00 0.01 0.01 50 1012.4
20260904230022 82 273 2.0 3.0 0.00 0.01 0.01 50 1012.4
20260904225917 82 287 2.0 3.0 0.00 0.01 0.01 50 1012.3
20260904225829 82 253 2.0 3.0 0.00 0.01 0.01 50 1012.4
20260904225724 82 245 2.0 2.0 0.00 0.01 0.01 50 1012.3
20260904225700 82 243 2.0 3.0 0.00 0.01 0.01 49 1012.2
20260904225535 82 248 2.0 3.0 0.00 0.01 0.01 49 1012.4
20260904225427 82 268 3.0 6.0 0.00 0.01 0.01 49 1012.3
20260904225323 82 307 3.0 4.0 0.00 0.01 0.01 49 1012.4
20260904225218 83 308 4.0 6.0 0.00 0.01 0.01 49 1012.2
20260904225149 83 301 3.0 6.0 0.00 0.01 0.01 49 1012.2
20260904225105 83 279 2.0 6.0 0.00 0.01 0.01 49 1012.3
20260904224940 83 249 1.0 2.0 0.00 0.01 0.01 49 1012.1
20260904224816 83 248 2.0 2.0 0.00 0.01 0.01 49 1012.3
20260904224728 83 249 1.0 2.0 0.00 0.01 0.01 48 1012.6
20260904224623 83 257 2.0 4.0 0.00 0.01 0.01 48 1012.6
20260904224538 83 250 3.0 6.0 0.00 0.01 0.01 48 1012.4
20260904224429 83 251 3.0 7.0 0.00 0.01 0.01 48 1012.5
20260904224325 83 296 1.0 2.0 0.00 0.01 0.01 48 1012.4
20260904224220 83 314 2.0 3.0 0.00 0.01 0.01 48 1012.5
20260904224116 83 251 2.0 2.0 0.00 0.01 0.01 47 1012.4
20260904224027 84 242 4.0 6.0 0.00 0.01 0.01 47 1012.6
20260904223923 84 253 3.0 6.0 0.00 0.01 0.01 47 1012.7
20260904223819 84 266 2.0 4.0 0.00 0.01 0.01 47 1012.5
20260904223730 84 236 4.0 7.0 0.00 0.01 0.01 47 1012.5
20260904223626 84 241 3.0 7.0 0.00 0.01 0.01 47 1012.5
20260904223541 84 254 5.0 9.0 0.00 0.01 0.01 46 1012.6
20260904223417 84 246 3.0 4.0 0.00 0.01 0.01 46 1012.4
20260904223328 84 249 2.0 3.0 0.00 0.01 0.01 47 1012.6
20260904223224 84 258 1.0 2.0 0.00 0.01 0.01 47 1012.4
20260904223119 84 255 1.0 2.0 0.00 0.01 0.01 46 1012.5
20260904223015 85 243 3.0 3.0 0.00 0.01 0.01 46 1012.6
20260904222927 85 242 2.0 3.0 0.00 0.01 0.01 46 1012.5
20260904222822 85 252 2.0 3.0 0.00 0.01 0.01 46 1012.5
20260904222718 85 268 1.0 2.0 0.00 0.01 0.01 46 1012.5
20260904222649 85 298 3.0 6.0 0.00 0.01 0.01 45 1012.5
20260904222525 85 248 2.0 3.0 0.00 0.01 0.01 45 1012.3
20260904222523 86 245 2.0 3.0 0.00 0.01 0.01 45 1012.4
20260904222316 86 275 2.0 6.0 0.00 0.01 0.01 45 1012.6
20260904222228 86 280 2.0 4.0 0.00 0.01 0.01 44 1012.6
20260904222123 86 255 3.0 8.0 0.00 0.01 0.01 44 1012.6
20260904222019 86 260 1.0 2.0 0.00 0.01 0.01 44 1012.7
20260904221930 87 263 1.0 3.0 0.00 0.01 0.01 44 1012.5
20260904221825 87 240 5.0 8.0 0.00 0.01 0.01 43 1012.5
20260904221720 87 297 2.0 3.0 0.00 0.01 0.01 43 1012.5
20260904221615 87 238 3.0 6.0 0.00 0.01 0.01 42 1012.5
20260904221547 87 252 3.0 6.0 0.00 0.01 0.01 43 1012.5
20260904221423 87 295 2.0 6.0 0.00 0.01 0.01 44 1012.5
20260904221318 87 303 3.0 6.0 0.00 0.01 0.01 44 1012.3
20260904221230 87 251 2.0 2.0 0.00 0.01 0.01 44 1012.3
20260904221128 87 251 2.0 3.0 0.00 0.01 0.01 43 1012.4
20260904221019 87 234 3.0 4.0 0.00 0.01 0.01 43 1012.4
20260904220931 87 280 2.0 6.0 0.00 0.01 0.01 43 1012.4
20260904220826 87 317 2.0 6.0 0.00 0.01 0.01 44 1012.4
20260904220742 87 332 2.0 3.0 0.00 0.01 0.01 43 1012.6
20260904220637 87 281 2.0 4.0 0.00 0.01 0.01 43 1012.3
20260904220529 87 234 3.0 4.0 0.00 0.01 0.01 43 1012.6
20260904220424 87 244 4.0 7.0 0.00 0.01 0.01 42 1012.5
20260904220400 87 234 4.0 7.0 0.00 0.01 0.01 43 1012.3
20260904220215 87 247 3.0 6.0 0.00 0.01 0.01 44 1012.4
20260904220127 87 243 3.0 4.0 0.00 0.01 0.01 45 1012.4
20260904220043 87 251 2.0 4.0 0.00 0.01 0.01 44 1012.2
20260904215918 87 236 3.0 6.0 0.00 0.01 0.01 43 1012.2
20260904215830 87 261 2.0 4.0 0.00 0.01 0.01 42 1012.6
20260904215726 87 263 4.0 8.0 0.00 0.01 0.01 41 1012.4
20260904215701 88 259 5.0 8.0 0.00 0.01 0.01 42 1012.5
20260904215516 88 279 5.0 11.0 0.00 0.01 0.01 43 1012.4
20260904215428 88 229 4.0 7.0 0.00 0.01 0.01 42 1012.5
20260904215324 88 235 4.0 8.0 0.00 0.01 0.01 43 1012.4
20260904215220 88 263 5.0 10.0 0.00 0.01 0.01 43 1012.4
20260904215115 88 248 2.0 10.0 0.00 0.01 0.01 44 1012.4
20260904215027 88 250 2.0 2.0 0.00 0.01 0.01 44 1012.2
20260904214922 87 285 2.0 4.0 0.00 0.01 0.01 44 1012.2
20260904214818 87 286 5.0 8.0 0.00 0.01 0.01 43 1012.3
20260904214730 87 301 2.0 3.0 0.00 0.01 0.01 44 1012.4
20260904214625 87 259 1.0 3.0 0.00 0.01 0.01 44 1012.3
20260904214520 87 245 4.0 6.0 0.00 0.01 0.01 42 1012.4
20260904214416 87 262 3.0 3.0 0.00 0.01 0.01 43 1012.2
20260904214327 87 240 5.0 9.0 0.00 0.01 0.01 42 1012.3
20260904214223 87 249 5.0 7.0 0.00 0.01 0.01 42 1012.3
20260904214117 87 284 3.0 4.0 0.00 0.01 0.01 42 1012.4
20260904214048 87 233 4.0 8.0 0.00 0.01 0.01 43 1012.2
20260904213923 87 254 4.0 9.0 0.00 0.01 0.01 44 1012.3
20260904213817 87 253 3.0 6.0 0.00 0.01 0.01 42 1012.3
20260904213729 87 265 3.0 4.0 0.00 0.01 0.01 42 1012.2
20260904213644 87 273 5.0 9.0 0.00 0.01 0.01 42 1012.2
20260904213520 87 256 3.0 4.0 0.00 0.01 0.01 43 1012.2
20260904213416 87 279 3.0 4.0 0.00 0.01 0.01 44 1012.4
20260904213327 87 321 3.0 6.0 0.00 0.01 0.01 44 1012.3
20260904213222 87 319 3.0 4.0 0.00 0.01 0.01 45 1012.2
20260904213118 87 297 2.0 3.0 0.00 0.01 0.01 44 1012.2
20260904213030 86 276 4.0 8.0 0.00 0.01 0.01 44 1012.3
20260904212925 86 306 3.0 6.0 0.00 0.01 0.01 45 1012.1
20260904212821 86 287 3.0 6.0 0.00 0.01 0.01 44 1012.2
20260904212736 86 310 4.0 6.0 0.00 0.01 0.01 43 1012.3
20260904212628 86 256 5.0 8.0 0.00 0.01 0.01 44 1012.1
20260904212524 86 250 2.0 3.0 0.00 0.01 0.01 44 1012.1
20260904212419 86 270 4.0 7.0 0.00 0.01 0.01 43 1012.1
20260904212331 86 245 4.0 6.0 0.00 0.01 0.01 43 1012.0
20260904212226 86 257 3.0 4.0 0.00 0.01 0.01 44 1012.0
20260904212122 86 256 7.0 10.0 0.00 0.01 0.01 44 1011.9
20260904212018 86 280 3.0 6.0 0.00 0.01 0.01 44 1011.9
20260904211929 86 259 3.0 6.0 0.00 0.01 0.01 45 1011.9
20260904211825 86 248 4.0 8.0 0.00 0.01 0.01 44 1011.9
20260904211720 86 246 5.0 9.0 0.00 0.01 0.01 43 1011.9
20260904211616 86 245 7.0 11.0 0.00 0.01 0.01 45 1012.0
20260904211527 86 289 3.0 4.0 0.00 0.01 0.01 45 1012.0
20260904211423 86 272 5.0 7.0 0.00 0.01 0.01 44 1011.9
20260904211318 86 328 4.0 6.0 0.00 0.01 0.01 43 1012.0
20260904211230 86 245 4.0 6.0 0.00 0.01 0.01 44 1011.9
20260904211125 86 248 6.0 8.0 0.00 0.01 0.01 44 1012.1
20260904211021 86 259 4.0 6.0 0.00 0.01 0.01 44 1012.1
20260904210917 86 262 5.0 8.0 0.00 0.01 0.01 44 1012.1
20260904210829 86 247 5.0 9.0 0.00 0.01 0.01 45 1012.1
20260904210724 86 260 5.0 10.0 0.00 0.01 0.01 45 1012.0
20260904210620 86 260 6.0 8.0 0.00 0.01 0.01 45 1012.1
20260904210515 86 272 3.0 10.0 0.00 0.01 0.01 46 1012.0
20260904210427 86 272 2.0 3.0 0.00 0.01 0.01 45 1012.0
20260904210342 86 237 2.0 3.0 0.00 0.01 0.01 47 1011.9
20260904210218 86 317 5.0 8.0 0.00 0.01 0.01 46 1012.0
20260904210130 86 262 4.0 7.0 0.00 0.01 0.01 46 1012.0
20260904210025 86 263 5.0 8.0 0.00 0.01 0.01 47 1012.1
20260904205921 86 260 2.0 3.0 0.00 0.01 0.01 48 1012.1
20260904205816 85 310 4.0 6.0 0.00 0.01 0.01 48 1012.0
20260904205728 85 266 4.0 8.0 0.00 0.01 0.01 47 1012.0
20260904205624 85 288 4.0 8.0 0.00 0.01 0.01 48 1012.1
20260904205519 85 282 2.0 3.0 0.00 0.01 0.01 48 1012.2
20260904205415 85 269 3.0 7.0 0.00 0.01 0.01 47 1012.0
20260904205326 85 256 2.0 4.0 0.00 0.01 0.01 48 1012.2
20260904205242 85 259 4.0 9.0 0.00 0.01 0.01 48 1012.0
20260904205118 85 240 5.0 7.0 0.00 0.01 0.01 49 1012.0
20260904205029 85 292 3.0 6.0 0.00 0.01 0.01 48 1012.1
20260904204925 85 224 3.0 7.0 0.00 0.01 0.01 48 1012.1
20260904204820 85 248 3.0 6.0 0.00 0.01 0.01 49 1012.2
20260904204756 84 259 3.0 6.0 0.00 0.01 0.01 48 1012.2
20260904204628 84 278 3.0 8.0 0.00 0.01 0.01 49 1012.3
20260904204523 84 281 4.0 6.0 0.00 0.01 0.01 48 1012.4
20260904204439 84 245 3.0 6.0 0.00 0.01 0.01 47 1012.4
20260904204331 84 273 4.0 6.0 0.00 0.01 0.01 49 1012.4
20260904204226 84 289 2.0 6.0 0.00 0.01 0.01 49 1012.3
20260904204122 84 274 3.0 4.0 0.00 0.01 0.01 48 1012.1
20260904204017 84 237 4.0 7.0 0.00 0.01 0.01 48 1012.1
20260904204010 84 273 4.0 9.0 0.00 0.01 0.01 47 1012.1
20260904203822 84 247 6.0 9.0 0.00 0.01 0.01 48 1012.2
20260904203717 84 238 9.0 14.0 0.00 0.01 0.01 49 1012.3
20260904203629 84 245 5.0 11.0 0.00 0.01 0.01 50 1012.2
20260904203525 84 223 3.0 6.0 0.00 0.01 0.01 50 1012.3
20260904203440 84 271 4.0 6.0 0.00 0.01 0.01 49 1012.4
20260904203316 84 226 5.0 8.0 0.00 0.01 0.01 49 1012.3
20260904203228 84 253 6.0 10.0 0.00 0.01 0.01 49 1012.3
20260904203143 84 311 5.0 8.0 0.00 0.01 0.01 49 1012.4
20260904203019 84 227 5.0 9.0 0.00 0.01 0.01 49 1012.3
20260904202950 84 243 4.0 8.0 0.00 0.01 0.01 49 1012.4
20260904202846 84 253 4.0 6.0 0.00 0.01 0.01 51 1012.3
20260904202721 84 228 3.0 6.0 0.00 0.01 0.01 50 1012.4
20260904202617 84 249 2.0 3.0 0.00 0.01 0.01 50 1012.3
20260904202529 84 272 3.0 6.0 0.00 0.01 0.01 50 1012.3
20260904202424 84 269 3.0 4.0 0.00 0.01 0.01 50 1012.4
20260904202320 84 275 4.0 4.0 0.00 0.01 0.01 50 1012.2
20260904202215 84 303 3.0 7.0 0.00 0.01 0.01 50 1012.6
20260904202147 84 271 3.0 4.0 0.00 0.01 0.01 51 1012.4
20260904202043 84 255 3.0 4.0 0.00 0.01 0.01 50 1012.3
20260904201918 84 294 4.0 6.0 0.00 0.01 0.01 50 1012.4
20260904201850 84 296 3.0 6.0 0.00 0.01 0.01 51 1012.4
20260904201745 84 246 3.0 6.0 0.00 0.01 0.01 50 1012.4
20260904201621 84 248 1.0 2.0 0.00 0.01 0.01 50 1012.5
20260904201516 84 228 2.0 3.0 0.00 0.01 0.01 50 1012.5
20260904201428 84 279 3.0 8.0 0.00 0.01 0.01 49 1012.5
20260904201324 84 248 4.0 8.0 0.00 0.01 0.01 49 1012.6
20260904201219 84 248 5.0 7.0 0.00 0.01 0.01 50 1012.5
20260904201131 84 253 6.0 8.0 0.00 0.01 0.01 50 1012.4
20260904201047 84 238 3.0 8.0 0.00 0.01 0.01 50 1012.6
20260904200922 84 268 3.0 4.0 0.00 0.01 0.01 50 1012.7
20260904200818 84 274 2.0 3.0 0.00 0.01 0.01 50 1012.7
20260904200729 84 257 5.0 10.0 0.00 0.01 0.01 50 1012.5
20260904200625 84 259 6.0 10.0 0.00 0.01 0.01 51 1012.6
20260904200521 84 296 4.0 9.0 0.00 0.01 0.01 52 1012.6
20260904200436 84 256 4.0 7.0 0.00 0.01 0.01 50 1012.6
20260904200328 84 228 2.0 6.0 0.00 0.01 0.01 50 1012.6
20260904200243 84 250 5.0 11.0 0.00 0.01 0.01 50 1012.6
20260904200159 84 237 1.0 6.0 0.00 0.01 0.01 51 1012.4
20260904200031 84 229 3.0 6.0 0.00 0.01 0.01 50 1012.6
20260904195926 84 232 4.0 8.0 0.00 0.01 0.01 50 1012.6
20260904195822 84 270 5.0 10.0 0.00 0.01 0.01 50 1012.6
20260904195717 84 258 3.0 4.0 0.00 0.01 0.01 50 1012.5
20260904195629 84 247 3.0 6.0 0.00 0.01 0.01 50 1012.6
20260904195524 84 261 4.0 10.0 0.00 0.01 0.01 50 1012.6
20260904195420 84 253 2.0 7.0 0.00 0.01 0.01 49 1012.6
20260904195315 84 293 6.0 10.0 0.00 0.01 0.01 49 1012.6
20260904195227 84 321 7.0 10.0 0.00 0.01 0.01 50 1012.7
20260904195123 84 286 6.0 11.0 0.00 0.01 0.01 50 1012.8
20260904195018 84 236 4.0 9.0 0.00 0.01 0.01 49 1012.8
20260904194950 84 234 5.0 9.0 0.00 0.01 0.01 50 1012.6
20260904194825 84 250 5.0 8.0 0.00 0.01 0.01 50 1012.6
20260904194720 84 253 5.0 8.0 0.00 0.01 0.01 49 1012.7
20260904194615 84 252 6.0 11.0 0.00 0.01 0.01 49 1012.7
20260904194527 84 253 5.0 8.0 0.00 0.01 0.01 49 1012.6
20260904194443 84 244 3.0 6.0 0.00 0.01 0.01 50 1012.8
20260904194319 84 302 4.0 8.0 0.00 0.01 0.01 50 1012.9
20260904194230 84 245 4.0 8.0 0.00 0.01 0.01 50 1012.9
20260904194126 84 303 3.0 4.0 0.00 0.01 0.01 50 1012.9
20260904194021 84 250 4.0 6.0 0.00 0.01 0.01 50 1012.9
20260904193917 84 297 3.0 8.0 0.00 0.01 0.01 50 1012.8
20260904193828 84 306 3.0 4.0 0.00 0.01 0.01 50 1012.9
20260904193819 84 308 6.0 10.0 0.00 0.01 0.01 50 1012.8
20260904193551 84 243 4.0 6.0 0.00 0.01 0.01 49 1012.7
20260904193446 84 280 4.0 6.0 0.00 0.01 0.01 49 1012.9
20260904193322 84 301 3.0 4.0 0.00 0.01 0.01 50 1013.0
20260904193217 84 282 5.0 8.0 0.00 0.01 0.01 49 1013.0
20260904193129 85 316 4.0 8.0 0.00 0.01 0.01 49 1012.8
20260904193024 85 291 3.0 6.0 0.00 0.01 0.01 51 1012.8
20260904192939 85 324 4.0 9.0 0.00 0.01 0.01 51 1012.9
20260904192851 85 334 4.0 7.0 0.00 0.01 0.01 51 1012.9
20260904192726 85 317 2.0 3.0 0.00 0.01 0.01 51 1012.9
20260904192622 84 243 1.0 3.0 0.00 0.01 0.01 51 1012.8
20260904192517 85 313 2.0 3.0 0.00 0.01 0.01 51 1012.9
20260904192508 85 244 4.0 8.0 0.00 0.01 0.01 50 1013.0
20260904192404 85 252 4.0 7.0 0.00 0.01 0.01 50 1012.9
20260904192239 85 273 2.0 3.0 0.00 0.01 0.01 51 1012.8
20260904192115 85 228 1.0 3.0 0.00 0.01 0.01 51 1013.0
20260904192026 85 264 3.0 4.0 0.00 0.01 0.01 50 1013.1
20260904191922 85 237 5.0 8.0 0.00 0.01 0.01 50 1012.9
20260904191817 85 244 5.0 8.0 0.00 0.01 0.01 50 1013.0
20260904191729 85 272 3.0 6.0 0.00 0.01 0.01 51 1013.1
20260904191624 85 312 3.0 6.0 0.00 0.01 0.01 51 1013.1
20260904191520 84 324 6.0 10.0 0.00 0.01 0.01 50 1012.9
20260904191416 84 300 5.0 11.0 0.00 0.01 0.01 50 1013.1
20260904191327 84 303 4.0 8.0 0.00 0.01 0.01 51 1012.9
20260904191223 84 307 4.0 8.0 0.00 0.01 0.01 50 1012.9
20260904191118 85 272 6.0 10.0 0.00 0.01 0.01 49 1013.0
20260904191030 85 317 4.0 6.0 0.00 0.01 0.01 49 1013.0
20260904190925 85 254 5.0 8.0 0.00 0.01 0.01 49 1013.1
20260904190821 85 281 5.0 8.0 0.00 0.01 0.01 50 1013.2
20260904190716 85 296 4.0 8.0 0.00 0.01 0.01 50 1013.0
20260904190648 85 255 5.0 9.0 0.00 0.01 0.01 50 1013.0
20260904190603 85 261 3.0 4.0 0.00 0.01 0.01 51 1013.2
20260904190422 85 251 5.0 8.0 0.00 0.01 0.01 50 1013.1
20260904190329 85 281 5.0 8.0 0.00 0.01 0.01 49 1013.2
20260904190243 85 285 6.0 10.0 0.00 0.01 0.01 50 1013.2
20260904190119 85 327 4.0 7.0 0.00 0.01 0.01 50 1013.2
20260904190030 85 297 3.0 4.0 0.00 0.01 0.01 50 1013.0
20260904185926 85 245 6.0 9.0 0.00 0.01 0.01 48 1013.1
20260904185821 85 258 6.0 8.0 0.00 0.01 0.01 49 1013.1
20260904185717 85 256 4.0 7.0 0.00 0.01 0.01 50 1013.0
20260904185629 85 274 1.0 2.0 0.00 0.01 0.01 51 1013.1
20260904185524 85 262 1.0 2.0 0.00 0.01 0.01 51 1013.1
20260904185420 84 273 3.0 4.0 0.00 0.01 0.01 50 1013.0
20260904185315 85 260 3.0 6.0 0.00 0.01 0.01 50 1013.0
20260904185227 85 279 4.0 8.0 0.00 0.01 0.01 50 1013.3
20260904185122 85 236 5.0 9.0 0.00 0.01 0.01 50 1013.1
20260904185018 85 258 5.0 9.0 0.00 0.01 0.01 49 1013.3
20260904184929 85 243 5.0 9.0 0.00 0.01 0.01 50 1013.1
20260904184825 85 273 3.0 6.0 0.00 0.01 0.01 50 1013.1
20260904184721 85 273 3.0 6.0 0.00 0.01 0.01 50 1013.0
20260904184616 85 252 5.0 10.0 0.00 0.01 0.01 52 1013.3
20260904184528 84 268 3.0 4.0 0.00 0.01 0.01 52 1013.2
20260904184423 84 264 3.0 4.0 0.00 0.01 0.01 51 1013.1
20260904184319 84 260 2.0 2.0 0.00 0.01 0.01 52 1013.2
20260904184250 84 284 2.0 6.0 0.00 0.01 0.01 52 1013.2
20260904184125 84 290 4.0 6.0 0.00 0.01 0.01 52 1013.3
20260904184021 84 245 3.0 3.0 0.00 0.01 0.01 52 1013.3
20260904183937 84 243 2.0 3.0 0.00 0.01 0.01 52 1013.3
20260904183828 84 303 0.0 1.0 0.00 0.01 0.01 51 1013.3
20260904183724 84 309 2.0 3.0 0.00 0.01 0.01 50 1013.6
20260904183640 84 299 4.0 6.0 0.00 0.01 0.01 50 1013.3
20260904183515 84 250 3.0 4.0 0.00 0.01 0.01 50 1013.5
20260904183427 84 271 3.0 4.0 0.00 0.01 0.01 50 1013.4
20260904183322 84 250 3.0 6.0 0.00 0.01 0.01 50 1013.4
20260904183238 84 257 4.0 6.0 0.00 0.01 0.01 50 1013.4
20260904183150 85 278 4.0 6.0 0.00 0.01 0.01 50 1013.4
20260904183025 84 265 2.0 3.0 0.00 0.01 0.01 51 1013.5
20260904182920 84 319 3.0 4.0 0.00 0.01 0.01 51 1013.5
20260904182816 84 248 1.0 2.0 0.00 0.01 0.01 51 1013.2
20260904182808 84 269 2.0 3.0 0.00 0.01 0.01 51 1013.5
20260904182643 84 313 4.0 6.0 0.00 0.01 0.01 51 1013.4
20260904182538 85 262 4.0 7.0 0.00 0.01 0.01 51 1013.4
20260904182430 84 280 3.0 4.0 0.00 0.01 0.01 50 1013.2
20260904182326 85 268 3.0 6.0 0.00 0.01 0.01 49 1013.3
20260904182221 85 251 4.0 7.0 0.00 0.01 0.01 49 1013.1
20260904182117 85 227 4.0 6.0 0.00 0.01 0.01 50 1013.3
20260904182028 85 236 4.0 6.0 0.00 0.01 0.01 49 1013.5
20260904181944 85 268 3.0 4.0 0.00 0.01 0.01 50 1013.4
20260904181820 85 284 4.0 7.0 0.00 0.01 0.01 51 1013.3
20260904181715 85 253 5.0 8.0 0.00 0.01 0.01 51 1013.4
20260904181647 85 256 2.0 3.0 0.00 0.01 0.01 50 1013.4
20260904181522 85 253 4.0 6.0 0.00 0.01 0.01 50 1013.4
20260904181418 85 245 4.0 8.0 0.00 0.01 0.01 49 1013.3
20260904181330 85 237 5.0 7.0 0.00 0.01 0.01 49 1013.5
20260904181225 85 258 3.0 6.0 0.00 0.01 0.01 49 1013.3
20260904181120 85 234 3.0 4.0 0.00 0.01 0.01 49 1013.3
20260904181016 85 269 3.0 4.0 0.00 0.01 0.01 50 1013.3
20260904180927 85 258 5.0 10.0 0.00 0.01 0.01 49 1013.3
20260904180823 85 266 4.0 8.0 0.00 0.01 0.01 49 1013.4
20260904180719 85 216 2.0 3.0 0.00 0.01 0.01 51 1013.4
20260904180630 85 240 2.0 3.0 0.00 0.01 0.01 50 1013.3
20260904180525 85 256 5.0 10.0 0.00 0.01 0.01 50 1013.3
20260904180421 85 250 5.0 10.0 0.00 0.01 0.01 51 1013.1
20260904180316 84 296 3.0 6.0 0.00 0.01 0.01 51 1013.3
20260904180228 84 312 4.0 8.0 0.00 0.01 0.01 51 1013.4
20260904180123 84 306 4.0 10.0 0.00 0.01 0.01 51 1013.3
20260904180039 84 271 4.0 7.0 0.00 0.01 0.01 50 1013.4
20260904175931 84 273 4.0 8.0 0.00 0.01 0.01 50 1013.4
20260904175826 84 238 4.0 6.0 0.00 0.01 0.01 51 1013.3
20260904175802 84 294 1.0 2.0 0.00 0.01 0.01 51 1013.3
20260904175617 84 267 2.0 6.0 0.00 0.01 0.01 50 1013.4
20260904175529 84 279 4.0 9.0 0.00 0.01 0.01 50 1013.2
20260904175425 84 306 6.0 10.0 0.00 0.01 0.01 51 1013.3
20260904175320 84 319 4.0 7.0 0.00 0.01 0.01 51 1013.4
20260904175216 84 287 4.0 7.0 0.00 0.01 0.01 50 1013.3
20260904175128 84 255 6.0 11.0 0.00 0.01 0.01 50 1013.3
20260904175023 84 304 3.0 6.0 0.00 0.01 0.01 50 1013.3
20260904174919 84 258 6.0 10.0 0.00 0.01 0.01 50 1013.3
20260904174830 84 300 5.0 9.0 0.00 0.01 0.01 50 1013.3
20260904174726 84 298 2.0 3.0 0.00 0.01 0.01 51 1013.2
20260904174641 84 304 3.0 7.0 0.00 0.01 0.01 53 1013.3
20260904174517 84 232 4.0 4.0 0.00 0.01 0.01 52 1013.1
20260904174429 84 314 2.0 4.0 0.00 0.01 0.01 51 1013.1
20260904174324 84 261 4.0 7.0 0.00 0.01 0.01 50 1013.2
20260904174220 84 242 5.0 7.0 0.00 0.01 0.01 50 1013.2
20260904174115 84 237 4.0 9.0 0.00 0.01 0.01 51 1013.3
20260904174027 84 248 7.0 9.0 0.00 0.01 0.01 50 1013.3
20260904173923 84 250 6.0 13.0 0.00 0.01 0.01 50 1013.3
20260904173818 84 238 5.0 13.0 0.00 0.01 0.01 50 1013.2
20260904173730 84 266 4.0 7.0 0.00 0.01 0.01 50 1013.1
20260904173625 84 239 7.0 9.0 0.00 0.01 0.01 50 1013.2
20260904173521 84 291 5.0 7.0 0.00 0.01 0.01 49 1013.3
20260904173416 84 264 4.0 8.0 0.00 0.01 0.01 49 1013.2
20260904173328 84 283 5.0 9.0 0.00 0.01 0.01 49 1013.4
20260904173224 84 254 5.0 11.0 0.00 0.01 0.01 49 1013.3
20260904173119 84 309 3.0 4.0 0.00 0.01 0.01 49 1013.3
20260904173035 84 316 7.0 10.0 0.00 0.01 0.01 49 1013.3
20260904172947 84 272 4.0 8.0 0.00 0.01 0.01 50 1013.4
20260904172822 84 280 6.0 9.0 0.00 0.01 0.01 50 1013.3
20260904172718 84 351 4.0 8.0 0.00 0.01 0.01 49 1013.2
20260904172630 84 297 5.0 10.0 0.00 0.01 0.01 50 1013.4
20260904172525 84 283 8.0 14.0 0.00 0.01 0.01 51 1013.3
20260904172441 84 327 4.0 11.0 0.00 0.01 0.01 50 1013.1
20260904172316 84 313 7.0 10.0 0.00 0.01 0.01 49 1013.2
20260904172228 84 297 9.0 15.0 0.00 0.01 0.01 50 1013.1
20260904172123 85 290 5.0 11.0 0.00 0.01 0.01 50 1013.3
20260904172019 85 301 5.0 7.0 0.00 0.01 0.01 50 1013.3
20260904171931 85 266 7.0 9.0 0.00 0.01 0.01 50 1013.1
20260904171846 85 263 4.0 7.0 0.00 0.01 0.01 51 1013.3
20260904171722 85 282 3.0 7.0 0.00 0.01 0.01 50 1013.2
20260904171637 85 315 6.0 10.0 0.00 0.01 0.01 51 1013.2
20260904171549 85 315 4.0 8.0 0.00 0.01 0.01 51 1013.1
20260904171425 85 304 3.0 8.0 0.00 0.01 0.01 50 1013.1
20260904171320 85 301 5.0 7.0 0.00 0.01 0.01 50 1013.1
20260904171216 85 287 5.0 10.0 0.00 0.01 0.01 52 1013.3
20260904171128 85 326 6.0 11.0 0.00 0.01 0.01 50 1013.3
20260904171023 85 277 6.0 11.0 0.00 0.01 0.01 51 1013.2
20260904170919 85 281 3.0 6.0 0.00 0.01 0.01 51 1013.2
20260904170831 85 249 3.0 7.0 0.00 0.01 0.01 51 1013.4
20260904170726 85 291 4.0 6.0 0.00 0.01 0.01 51 1013.3
20260904170622 85 250 5.0 8.0 0.00 0.01 0.01 52 1013.3
20260904170517 85 252 3.0 4.0 0.00 0.01 0.01 51 1013.2
20260904170429 85 269 3.0 6.0 0.00 0.01 0.01 51 1013.3
20260904170324 85 255 5.0 8.0 0.00 0.01 0.01 50 1013.4
20260904170220 85 229 6.0 9.0 0.00 0.01 0.01 50 1013.3
20260904170115 85 245 3.0 7.0 0.00 0.01 0.01 51 1013.3
20260904170027 85 297 4.0 7.0 0.00 0.01 0.01 51 1013.5
20260904165943 85 285 5.0 8.0 0.00 0.01 0.01 51 1013.2
20260904165818 85 240 4.0 9.0 0.00 0.01 0.01 51 1013.2
20260904165730 85 272 3.0 7.0 0.00 0.01 0.01 51 1013.5
20260904165625 84 306 8.0 11.0 0.00 0.01 0.01 52 1013.5
20260904165521 84 287 3.0 7.0 0.00 0.01 0.01 52 1013.4
20260904165416 84 310 3.0 6.0 0.00 0.01 0.01 52 1013.5
20260904165348 84 274 4.0 9.0 0.00 0.01 0.01 52 1013.5
20260904165224 84 253 4.0 7.0 0.00 0.01 0.01 52 1013.5
20260904165119 84 272 5.0 8.0 0.00 0.01 0.01 53 1013.5
20260904165031 84 308 5.0 9.0 0.00 0.01 0.01 53 1013.5
20260904164926 84 246 2.0 3.0 0.00 0.01 0.01 53 1013.5
20260904164822 84 249 4.0 7.0 0.00 0.01 0.01 53 1013.4
20260904164717 84 237 6.0 9.0 0.00 0.01 0.01 51 1013.4
20260904164629 84 242 6.0 10.0 0.00 0.01 0.01 51 1013.6
20260904164524 84 258 4.0 6.0 0.00 0.01 0.01 51 1013.4
20260904164420 84 256 4.0 7.0 0.00 0.01 0.01 51 1013.4
20260904164335 84 234 6.0 10.0 0.00 0.01 0.01 51 1013.4
20260904164227 84 240 7.0 15.0 0.00 0.01 0.01 52 1013.5
20260904164123 84 255 6.0 9.0 0.00 0.01 0.01 52 1013.5
20260904164019 84 265 6.0 10.0 0.00 0.01 0.01 51 1013.4
20260904163930 84 283 8.0 15.0 0.00 0.01 0.01 52 1013.3
20260904163846 84 291 7.0 13.0 0.00 0.01 0.01 52 1013.4
20260904163741 84 251 6.0 10.0 0.00 0.01 0.01 51 1013.2
20260904163617 84 240 4.0 7.0 0.00 0.01 0.01 51 1013.0
20260904163528 84 227 5.0 9.0 0.00 0.01 0.01 52 1013.3
20260904163424 84 263 5.0 8.0 0.00 0.01 0.01 53 1013.4
20260904163320 85 254 4.0 6.0 0.00 0.01 0.01 53 1013.4
20260904163215 84 289 4.0 7.0 0.00 0.01 0.01 54 1013.3
20260904163147 84 312 4.0 7.0 0.00 0.01 0.01 54 1013.4
20260904163059 84 273 3.0 6.0 0.00 0.01 0.01 56 1013.5
20260904162850 84 321 5.0 8.0 0.00 0.01 0.01 54 1013.5
20260904162725 84 268 4.0 6.0 0.00 0.01 0.01 54 1013.6
20260904162641 84 312 4.0 6.0 0.00 0.01 0.01 54 1013.6
20260904162517 84 316 5.0 7.0 0.00 0.01 0.01 54 1013.4
20260904162428 84 279 2.0 7.0 0.00 0.01 0.01 54 1013.4
20260904162324 84 227 3.0 4.0 0.00 0.01 0.01 54 1013.5
20260904162219 84 286 4.0 6.0 0.00 0.01 0.01 54 1013.6
20260904162131 84 303 6.0 10.0 0.00 0.01 0.01 53 1013.4
20260904162027 84 277 6.0 10.0 0.00 0.01 0.01 53 1013.6
20260904161942 84 260 5.0 8.0 0.00 0.01 0.01 53 1013.6
20260904161818 84 264 6.0 11.0 0.00 0.01 0.01 52 1013.4
20260904161729 84 259 7.0 11.0 0.00 0.01 0.01 53 1013.6
20260904161705 84 260 4.0 7.0 0.00 0.01 0.01 53 1013.4
20260904161521 84 252 4.0 7.0 0.00 0.01 0.01 53 1013.4
20260904161416 84 276 5.0 9.0 0.00 0.01 0.01 54 1013.5
20260904161328 84 243 5.0 9.0 0.00 0.01 0.01 54 1013.3
20260904161223 84 264 4.0 6.0 0.00 0.01 0.01 53 1013.5
20260904161119 84 281 6.0 7.0 0.00 0.01 0.01 53 1013.2
20260904161031 84 234 3.0 4.0 0.00 0.01 0.01 54 1013.4
20260904160926 84 245 4.0 7.0 0.00 0.01 0.01 54 1013.7
20260904160822 84 267 5.0 8.0 0.00 0.01 0.01 54 1013.5
20260904160718 84 283 3.0 8.0 0.00 0.01 0.01 55 1013.5
20260904160629 84 288 4.0 8.0 0.00 0.01 0.01 54 1013.5
20260904160524 84 252 3.0 3.0 0.00 0.01 0.01 55 1013.3
20260904160419 84 286 4.0 8.0 0.00 0.01 0.01 54 1013.4
20260904160351 84 269 4.0 8.0 0.00 0.01 0.01 53 1013.4
20260904160246 84 308 5.0 7.0 0.00 0.01 0.01 53 1013.5
20260904160122 84 265 5.0 8.0 0.00 0.01 0.01 53 1013.5
20260904160038 84 295 7.0 15.0 0.00 0.01 0.01 52 1013.3
20260904155949 84 242 5.0 7.0 0.00 0.01 0.01 53 1013.6
20260904155824 84 256 3.0 6.0 0.00 0.01 0.01 53 1013.4
20260904155720 84 275 5.0 8.0 0.00 0.01 0.01 53 1013.4
20260904155636 84 314 5.0 11.0 0.00 0.01 0.01 54 1013.4
20260904155548 84 266 3.0 4.0 0.00 0.01 0.01 55 1013.5
20260904155514 84 316 5.0 8.0 0.00 0.01 0.01 54 1013.6
20260904155326 84 238 4.0 9.0 0.00 0.01 0.01 54 1013.7
20260904155221 84 302 5.0 9.0 0.00 0.01 0.01 54 1013.7
20260904155117 84 301 2.0 4.0 0.00 0.01 0.01 55 1013.5
20260904155028 84 313 4.0 6.0 0.00 0.01 0.01 54 1013.6
20260904154924 84 292 5.0 8.0 0.00 0.01 0.01 55 1013.6
20260904154820 84 297 6.0 10.0 0.00 0.01 0.01 54 1013.7
20260904154735 84 312 6.0 8.0 0.00 0.01 0.01 54 1013.6
20260904154647 84 325 6.0 10.0 0.00 0.01 0.01 54 1013.6
20260904154522 84 332 3.0 9.0 0.00 0.01 0.01 54 1013.6
20260904154418 84 315 1.0 2.0 0.00 0.01 0.01 54 1013.6
20260904154330 84 310 2.0 6.0 0.00 0.01 0.01 54 1013.6
20260904154225 84 273 4.0 7.0 0.00 0.01 0.01 54 1013.7
20260904154121 84 289 4.0 8.0 0.00 0.01 0.01 53 1013.6
20260904154016 84 310 4.0 9.0 0.00 0.01 0.01 53 1013.6
20260904153928 84 317 3.0 9.0 0.00 0.01 0.01 53 1013.6
20260904153824 84 328 3.0 7.0 0.00 0.01 0.01 53 1013.7
20260904153719 84 292 5.0 7.0 0.00 0.01 0.01 53 1013.8
20260904153631 84 257 4.0 8.0 0.00 0.01 0.01 53 1013.7
20260904153527 85 287 6.0 10.0 0.00 0.01 0.01 53 1013.8
20260904153422 85 260 6.0 14.0 0.00 0.01 0.01 55 1013.7
20260904153317 85 312 7.0 9.0 0.00 0.01 0.01 55 1013.8
20260904153229 85 293 2.0 8.0 0.00 0.01 0.01 56 1013.7
20260904153125 85 278 1.0 3.0 0.00 0.01 0.01 56 1013.6
20260904153020 85 235 2.0 3.0 0.00 0.01 0.01 56 1013.7
20260904152916 85 254 3.0 4.0 0.00 0.01 0.01 54 1013.6
20260904152827 85 257 2.0 4.0 0.00 0.01 0.01 54 1013.7
20260904152723 85 317 4.0 10.0 0.00 0.01 0.01 53 1013.8
20260904152658 86 326 6.0 9.0 0.00 0.01 0.01 53 1013.8
20260904152530 86 284 4.0 7.0 0.00 0.01 0.01 54 1013.8
20260904152505 86 323 3.0 6.0 0.00 0.01 0.01 54 1013.9
20260904152321 86 236 3.0 4.0 0.00 0.01 0.01 54 1013.9
20260904152217 86 246 2.0 4.0 0.00 0.01 0.01 54 1013.9
20260904152128 86 232 1.0 1.0 0.00 0.01 0.01 54 1013.7
20260904152024 86 230 1.0 2.0 0.00 0.01 0.01 52 1013.7
20260904151919 86 236 4.0 7.0 0.00 0.01 0.01 51 1013.8
20260904151831 87 270 3.0 4.0 0.00 0.01 0.01 51 1013.7
20260904151727 87 285 6.0 9.0 0.00 0.01 0.01 50 1014.0
20260904151622 87 309 7.0 11.0 0.00 0.01 0.01 51 1014.0
20260904151518 88 322 4.0 8.0 0.00 0.01 0.01 52 1014.0
20260904151429 88 299 4.0 9.0 0.00 0.01 0.01 51 1014.0
20260904151325 88 283 3.0 7.0 0.00 0.01 0.01 52 1013.9
20260904151221 88 355 3.0 8.0 0.00 0.01 0.01 51 1013.9
20260904151116 88 299 4.0 8.0 0.00 0.01 0.01 53 1014.0
20260904151027 87 38 2.0 6.0 0.00 0.01 0.01 51 1013.9
20260904150924 87 313 3.0 4.0 0.00 0.01 0.01 52 1013.8
20260904150839 87 296 1.0 3.0 0.00 0.01 0.01 52 1013.9
20260904150750 87 272 3.0 6.0 0.00 0.01 0.01 53 1013.9
20260904150626 87 345 3.0 7.0 0.00 0.01 0.01 53 1014.0
20260904150521 87 344 3.0 3.0 0.00 0.01 0.01 53 1014.1
20260904150437 87 329 2.0 6.0 0.00 0.01 0.01 54 1013.9
20260904150329 87 303 2.0 6.0 0.00 0.01 0.01 55 1014.0
20260904150224 86 1 2.0 4.0 0.00 0.01 0.01 54 1014.0
20260904150120 86 329 3.0 6.0 0.00 0.01 0.01 54 1014.1
20260904150015 86 333 4.0 6.0 0.00 0.01 0.01 54 1014.0
20260904145927 86 276 2.0 6.0 0.00 0.01 0.01 55 1013.9
20260904145823 86 290 1.0 2.0 0.00 0.01 0.01 54 1014.1
20260904145738 86 228 3.0 4.0 0.00 0.01 0.01 54 1013.9
20260904145650 86 295 5.0 8.0 0.00 0.01 0.01 55 1013.9
20260904145525 86 226 1.0 1.0 0.00 0.01 0.01 56 1013.9
20260904145441 85 266 0.0 1.0 0.00 0.01 0.01 55 1013.9
20260904145316 85 253 2.0 6.0 0.00 0.01 0.01 54 1014.0
20260904145228 85 253 3.0 4.0 0.00 0.01 0.01 55 1013.9
20260904145124 85 311 4.0 6.0 0.00 0.01 0.01 54 1014.0
20260904145020 85 310 7.0 9.0 0.00 0.01 0.01 55 1013.9
20260904144931 85 357 1.0 3.0 0.00 0.01 0.01 56 1013.7
20260904144827 85 335 2.0 4.0 0.00 0.01 0.01 56 1014.0
20260904144722 85 356 5.0 11.0 0.00 0.01 0.01 55 1013.9
20260904144618 86 291 5.0 10.0 0.00 0.01 0.01 54 1013.8
20260904144531 86 306 5.0 10.0 0.00 0.01 0.01 54 1013.8
20260904144425 86 303 6.0 9.0 0.00 0.01 0.01 54 1013.8
20260904144320 86 309 6.0 10.0 0.00 0.01 0.01 55 1013.8
20260904144231 86 315 3.0 13.0 0.00 0.01 0.01 55 1013.7
20260904144126 86 297 1.0 2.0 0.00 0.01 0.01 54 1013.8
20260904144022 86 298 3.0 4.0 0.00 0.01 0.01 54 1013.7
20260904143918 86 322 2.0 4.0 0.00 0.01 0.01 53 1013.7
20260904143829 86 291 3.0 4.0 0.00 0.01 0.01 53 1013.7
20260904143724 86 291 2.0 3.0 0.00 0.01 0.01 53 1013.8
20260904143620 87 295 6.0 10.0 0.00 0.01 0.01 53 1013.7
20260904143516 87 321 2.0 4.0 0.00 0.01 0.01 53 1013.7
20260904143428 87 325 4.0 9.0 0.00 0.01 0.01 53 1013.7
20260904143323 87 250 8.0 15.0 0.00 0.01 0.01 54 1013.8
20260904143218 88 267 4.0 6.0 0.00 0.01 0.01 55 1013.8
20260904143130 88 284 3.0 7.0 0.00 0.01 0.01 55 1013.8
20260904143046 88 299 3.0 7.0 0.00 0.01 0.01 53 1013.9
20260904142941 88 295 5.0 9.0 0.00 0.01 0.01 54 1013.8
20260904142817 88 294 5.0 8.0 0.00 0.01 0.01 53 1013.8
20260904142728 88 309 4.0 9.0 0.00 0.01 0.01 52 1013.8
20260904142624 89 300 4.0 7.0 0.00 0.01 0.01 52 1013.7
20260904142519 89 290 5.0 8.0 0.00 0.01 0.01 53 1013.6
20260904142415 89 290 3.0 4.0 0.00 0.01 0.01 54 1013.8
20260904142327 89 286 4.0 8.0 0.00 0.01 0.01 55 1014.0
20260904142222 89 296 3.0 3.0 0.00 0.01 0.01 54 1014.0
20260904142118 89 310 3.0 6.0 0.00 0.01 0.01 55 1013.7
20260904142050 89 270 2.0 6.0 0.00 0.01 0.01 54 1013.8
20260904141925 89 305 4.0 8.0 0.00 0.01 0.01 56 1013.8
20260904141821 89 335 2.0 4.0 0.00 0.01 0.01 55 1013.7
20260904141716 89 327 3.0 4.0 0.00 0.01 0.01 54 1013.8
20260904141628 89 292 1.0 3.0 0.00 0.01 0.01 54 1014.1
20260904141544 89 321 3.0 7.0 0.00 0.01 0.01 54 1013.8
20260904141419 89 287 2.0 4.0 0.00 0.01 0.01 54 1013.8
20260904141331 88 284 2.0 4.0 0.00 0.01 0.01 55 1013.6
20260904141226 88 307 5.0 7.0 0.00 0.01 0.01 54 1013.7
20260904141122 88 301 4.0 8.0 0.00 0.01 0.01 55 1013.8
20260904141018 88 246 2.0 6.0 0.00 0.01 0.01 55 1013.9
20260904140929 88 304 3.0 6.0 0.00 0.01 0.01 55 1013.8
20260904140825 88 288 2.0 4.0 0.00 0.01 0.01 58 1013.8
20260904140720 88 240 0.0 1.0 0.00 0.01 0.01 56 1013.5
20260904140615 88 238 2.0 6.0 0.00 0.01 0.01 55 1013.6
20260904140527 88 291 3.0 7.0 0.00 0.01 0.01 55 1013.5
20260904140422 88 250 4.0 8.0 0.00 0.01 0.01 56 1013.6
20260904140338 88 285 3.0 6.0 0.00 0.01 0.01 56 1013.7
20260904140230 88 275 2.0 3.0 0.00 0.01 0.01 55 1013.7
20260904140125 88 356 3.0 7.0 0.00 0.01 0.01 55 1013.6
20260904140021 88 355 2.0 4.0 0.00 0.01 0.01 55 1013.5
20260904135916 88 318 3.0 10.0 0.00 0.01 0.01 55 1013.5
20260904135828 88 293 4.0 11.0 0.00 0.01 0.01 56 1013.6
20260904135743 88 305 3.0 6.0 0.00 0.01 0.01 57 1013.6
20260904135619 88 246 3.0 3.0 0.00 0.01 0.01 57 1013.6
20260904135550 88 296 4.0 7.0 0.00 0.01 0.01 56 1013.5
20260904135426 88 258 3.0 6.0 0.00 0.01 0.01 55 1013.7
20260904135321 88 241 5.0 8.0 0.00 0.01 0.01 55 1013.7
20260904135217 88 271 5.0 9.0 0.00 0.01 0.01 57 1013.5
20260904135129 88 303 5.0 7.0 0.00 0.01 0.01 56 1013.6
20260904135024 88 284 2.0 3.0 0.00 0.01 0.01 58 1013.5
20260904134920 88 300 1.0 2.0 0.00 0.01 0.01 59 1013.5
20260904134815 88 287 2.0 3.0 0.00 0.01 0.01 59 1013.7
20260904134727 88 238 4.0 7.0 0.00 0.01 0.01 57 1013.6
20260904134623 88 236 3.0 8.0 0.00 0.01 0.01 58 1013.6
20260904134518 88 234 2.0 2.0 0.00 0.01 0.01 58 1013.4
20260904134429 88 240 2.0 4.0 0.00 0.01 0.01 59 1013.6
20260904134325 87 243 2.0 2.0 0.00 0.01 0.01 60 1013.5
20260904134220 87 265 2.0 3.0 0.00 0.01 0.01 59 1013.6
20260904134116 87 286 2.0 3.0 0.00 0.01 0.01 60 1013.3
20260904134028 87 304 4.0 6.0 0.00 0.01 0.01 59 1013.5
20260904133923 87 278 4.0 11.0 0.00 0.01 0.01 60 1013.6
20260904133819 87 267 4.0 7.0 0.00 0.01 0.01 58 1013.6
20260904133730 87 259 3.0 4.0 0.00 0.01 0.01 58 1013.5
20260904133626 87 247 5.0 9.0 0.00 0.01 0.01 58 1013.5
20260904133601 87 239 3.0 4.0 0.00 0.01 0.01 61 1013.5
20260904133417 87 294 3.0 4.0 0.00 0.01 0.01 60 1013.3
20260904133328 87 309 4.0 8.0 0.00 0.01 0.01 59 1013.6
20260904133224 87 300 4.0 6.0 0.00 0.01 0.01 61 1013.6
20260904133119 87 332 2.0 4.0 0.00 0.01 0.01 62 1013.7
20260904133051 87 311 2.0 2.0 0.00 0.01 0.01 62 1013.3
20260904132926 86 281 2.0 2.0 0.00 0.01 0.01 62 1013.5
20260904132842 86 300 1.0 2.0 0.00 0.01 0.01 63 1013.5
20260904132757 86 337 4.0 6.0 0.00 0.01 0.01 63 1013.5
20260904132649 86 269 2.0 4.0 0.00 0.01 0.01 64 1013.4
20260904132524 86 280 2.0 4.0 0.00 0.01 0.01 67 1013.5
20260904132420 85 315 1.0 2.0 0.00 0.01 0.01 67 1013.5
20260904132336 85 290 0.0 1.0 0.00 0.01 0.01 66 1013.4
20260904132227 85 293 1.0 2.0 0.00 0.01 0.01 67 1013.4
20260904132122 84 313 1.0 2.0 0.00 0.01 0.01 68 1013.4
20260904132018 84 250 3.0 4.0 0.00 0.01 0.01 64 1013.4
20260904131950 84 244 4.0 4.0 0.00 0.01 0.01 65 1013.4
20260904131845 84 258 2.0 4.0 0.00 0.01 0.01 64 1013.4
20260904131721 85 243 4.0 8.0 0.00 0.01 0.01 64 1013.4
20260904131616 85 273 3.0 6.0 0.00 0.01 0.01 64 1013.5
20260904131528 85 276 5.0 8.0 0.00 0.01 0.01 64 1013.4
20260904131424 85 238 5.0 9.0 0.00 0.01 0.01 64 1013.5
20260904131319 85 296 4.0 4.0 0.00 0.01 0.01 65 1013.5
20260904131231 85 289 4.0 6.0 0.00 0.01 0.01 64 1013.5
20260904131126 85 265 2.0 6.0 0.00 0.01 0.01 65 1013.5
20260904131022 85 256 4.0 6.0 0.00 0.01 0.01 65 1013.6
20260904130917 85 299 2.0 3.0 0.00 0.01 0.01 65 1013.6
20260904130829 85 298 2.0 3.0 0.00 0.01 0.01 65 1013.5
20260904130725 85 282 3.0 3.0 0.00 0.01 0.01 65 1013.6
20260904130620 85 247 4.0 7.0 0.00 0.01 0.01 66 1013.6
20260904130516 85 302 3.0 4.0 0.00 0.01 0.01 65 1013.6
20260904130428 85 302 5.0 7.0 0.00 0.01 0.01 67 1013.6
20260904130343 85 331 2.0 4.0 0.00 0.01 0.01 67 1013.7
20260904130259 85 307 4.0 6.0 0.00 0.01 0.01 68 1013.7
20260904130130 85 314 3.0 4.0 0.00 0.01 0.01 68 1013.8
20260904130026 85 321 3.0 4.0 0.00 0.01 0.01 67 1013.7
20260904125921 85 323 4.0 7.0 0.00 0.01 0.01 69 1013.7
20260904125817 84 301 1.0 2.0 0.00 0.01 0.01 71 1013.7
20260904125728 84 276 1.0 2.0 0.00 0.01 0.01 70 1013.8
20260904125624 84 238 1.0 3.0 0.00 0.01 0.01 68 1013.8
20260904125520 84 238 3.0 4.0 0.00 0.01 0.01 68 1013.8
20260904125415 84 295 2.0 3.0 0.00 0.01 0.01 68 1013.9
20260904125327 84 291 2.0 3.0 0.00 0.01 0.01 70 1013.7
20260904125222 84 315 3.0 4.0 0.00 0.01 0.01 71 1013.7
20260904125118 83 325 1.0 3.0 0.00 0.01 0.01 70 1013.6
20260904125029 83 225 2.0 2.0 0.00 0.01 0.01 71 1013.8
20260904124925 83 233 1.0 1.0 0.00 0.01 0.01 72 1013.6
20260904124821 83 235 1.0 4.0 0.00 0.01 0.01 74 1013.6
20260904124716 83 243 1.0 4.0 0.00 0.01 0.01 73 1013.7
20260904124628 83 301 4.0 7.0 0.00 0.01 0.01 72 1013.8
20260904124523 83 274 2.0 3.0 0.00 0.01 0.01 73 1013.8
20260904124439 82 323 3.0 4.0 0.00 0.01 0.01 72 1013.9
20260904124331 82 240 4.0 8.0 0.00 0.01 0.01 73 1013.8
20260904124226 82 300 0.0 1.0 0.00 0.01 0.01 74 1013.6
20260904124122 82 306 2.0 4.0 0.00 0.01 0.01 74 1013.7
20260904124017 82 306 3.0 6.0 0.00 0.01 0.01 73 1013.7
20260904123929 82 283 3.0 7.0 0.00 0.01 0.01 73 1013.7
20260904123845 82 238 3.0 6.0 0.00 0.01 0.01 73 1013.7
20260904123720 82 257 2.0 2.0 0.00 0.01 0.01 75 1013.7
20260904123616 81 269 1.0 1.0 0.00 0.01 0.01 77 1013.5
20260904123527 81 269 1.0 2.0 0.00 0.01 0.01 77 1013.7
20260904123443 81 298 1.0 2.0 0.00 0.01 0.01 76 1013.6
20260904123339 81 313 4.0 4.0 0.00 0.01 0.01 75 1013.6
20260904123250 81 275 3.0 4.0 0.00 0.01 0.01 74 1013.5
20260904123125 81 240 6.0 7.0 0.00 0.01 0.01 73 1013.8
20260904123021 81 279 4.0 7.0 0.00 0.01 0.01 74 1013.6
20260904122917 81 305 6.0 8.0 0.00 0.01 0.01 76 1013.6
20260904122828 81 305 2.0 3.0 0.00 0.01 0.01 75 1013.7
20260904122724 81 320 2.0 3.0 0.00 0.01 0.01 75 1013.6
20260904122620 80 270 3.0 3.0 0.00 0.01 0.01 76 1013.6
20260904122535 80 301 5.0 8.0 0.00 0.01 0.01 77 1013.5
20260904122427 80 303 3.0 4.0 0.00 0.01 0.01 77 1013.6
20260904122322 80 266 2.0 2.0 0.00 0.01 0.01 77 1013.5
20260904122218 80 261 2.0 2.0 0.00 0.01 0.01 78 1013.4
20260904122129 80 290 2.0 2.0 0.00 0.01 0.01 79 1013.4
20260904122045 79 312 2.0 2.0 0.00 0.01 0.01 79 1013.4
20260904121921 79 320 3.0 3.0 0.00 0.01 0.01 79 1013.3
20260904121816 79 314 2.0 2.0 0.00 0.01 0.01 79 1013.4
20260904121728 79 235 1.0 2.0 0.00 0.01 0.01 80 1013.3
20260904121623 79 238 2.0 2.0 0.00 0.01 0.01 79 1013.3
20260904121519 79 247 4.0 8.0 0.00 0.01 0.01 79 1013.5
20260904121430 78 247 4.0 6.0 0.00 0.01 0.01 80 1013.1
20260904121346 78 234 2.0 6.0 0.00 0.01 0.01 82 1013.3
20260904121221 78 297 1.0 1.0 0.00 0.01 0.01 82 1013.3
20260904121117 78 297 1.0 2.0 0.00 0.01 0.01 82 1013.1
20260904121028 78 296 1.0 2.0 0.00 0.01 0.01 82 1013.3
20260904120944 77 257 4.0 6.0 0.00 0.01 0.01 82 1013.3
20260904120820 77 247 4.0 4.0 0.00 0.01 0.01 83 1013.2
20260904120715 77 236 3.0 6.0 0.00 0.01 0.01 84 1013.3
20260904120627 77 243 1.0 3.0 0.00 0.01 0.01 85 1013.2
20260904120522 76 258 1.0 2.0 0.00 0.01 0.01 86 1013.2
20260904120418 76 283 1.0 2.0 0.00 0.01 0.01 86 1013.1
20260904120330 76 261 1.0 2.0 0.00 0.01 0.01 86 1013.1
20260904120225 76 270 2.0 2.0 0.00 0.01 0.01 86 1013.1
20260904120121 76 283 2.0 3.0 0.00 0.01 0.01 87 1013.1
20260904120016 75 298 2.0 2.0 0.00 0.01 0.01 87 1013.1
20260904115928 75 264 2.0 4.0 0.00 0.01 0.01 87 1013.1
20260904115823 75 259 2.0 3.0 0.00 0.01 0.01 87 1013.0
20260904115719 75 261 3.0 6.0 0.00 0.01 0.01 87 1013.0
20260904115631 75 239 4.0 6.0 0.00 0.01 0.01 88 1013.2
20260904115526 75 240 1.0 4.0 0.00 0.01 0.01 88 1013.1
20260904115422 75 243 1.0 1.0 0.00 0.01 0.01 88 1013.1
20260904115318 74 243 0.0 1.0 0.00 0.01 0.01 88 1012.8
20260904115230 74 243 1.0 2.0 0.00 0.01 0.01 88 1013.0
20260904115125 74 243 1.0 2.0 0.00 0.01 0.01 88 1013.1
20260904115021 74 244 1.0 2.0 0.00 0.01 0.01 88 1013.3
20260904114931 74 252 1.0 2.0 0.00 0.01 0.01 88 1013.1
20260904114446 74 272 0.0 1.0 0.00 0.01 0.01 88 1013.1
20260904114342 74 272 2.0 2.0 0.00 0.01 0.01 88 1013.2
20260904114218 74 273 2.0 3.0 0.00 0.01 0.01 89 1013.2
20260904114149 74 245 3.0 4.0 0.00 0.01 0.01 89 1013.2
20260904114025 74 288 2.0 2.0 0.00 0.01 0.01 89 1013.2
20260904113920 74 297 2.0 3.0 0.00 0.01 0.01 89 1013.2
20260904113856 74 260 1.0 2.0 0.00 0.01 0.01 89 1013.2
20260904113727 74 260 2.0 2.0 0.00 0.01 0.01 89 1013.2
20260904113623 74 265 2.0 3.0 0.00 0.01 0.01 89 1013.3
20260904113519 74 310 1.0 2.0 0.00 0.01 0.01 89 1013.3
20260904113430 74 258 2.0 3.0 0.00 0.01 0.01 89 1013.5
20260904113326 74 243 1.0 2.0 0.00 0.01 0.01 89 1013.3
20260904113221 74 265 2.0 3.0 0.00 0.01 0.01 90 1013.3
20260904113117 74 229 3.0 6.0 0.00 0.01 0.01 90 1013.3
20260904113029 73 242 2.0 4.0 0.00 0.01 0.01 90 1013.3
20260904112924 73 238 1.0 2.0 0.00 0.01 0.01 90 1013.3
20260904112820 73 239 2.0 4.0 0.00 0.01 0.01 90 1013.2
20260904112715 73 267 2.0 3.0 0.00 0.01 0.01 90 1013.3
20260904112627 73 257 2.0 3.0 0.00 0.01 0.01 90 1013.3
20260904112523 73 282 1.0 2.0 0.00 0.01 0.01 90 1013.3
20260904112418 73 286 1.0 2.0 0.00 0.01 0.01 90 1013.1
20260904112410 73 260 1.0 1.0 0.00 0.01 0.01 91 1013.1
20260904112225 73 263 2.0 3.0 0.00 0.01 0.01 91 1013.2
20260904112141 73 257 2.0 3.0 0.00 0.01 0.01 91 1013.2
20260904112017 73 256 1.0 3.0 0.00 0.01 0.01 91 1013.0
20260904111928 73 271 2.0 3.0 0.00 0.01 0.01 90 1013.2
20260904111824 73 297 1.0 2.0 0.00 0.01 0.01 90 1013.2
20260904111719 73 297 1.0 2.0 0.00 0.01 0.01 91 1013.0
20260904111615 73 297 1.0 1.0 0.00 0.01 0.01 90 1013.0
20260904111527 73 0.0 0.0 0.00 0.01 0.01 91 1013.1
20260904111422 73 298 0.0 1.0 0.00 0.01 0.01 91 1013.1
20260904111318 73 298 1.0 2.0 0.00 0.01 0.01 91 1013.2
20260904111230 73 263 2.0 3.0 0.00 0.01 0.01 91 1013.0
20260904111125 73 252 1.0 2.0 0.00 0.01 0.01 90 1013.0
20260904111021 73 233 1.0 1.0 0.00 0.01 0.01 90 1012.9
20260904110916 73 0.0 0.0 0.00 0.01 0.01 91 1013.0
20260904110828 73 233 1.0 2.0 0.00 0.01 0.01 90 1012.9
20260904110724 73 233 0.0 2.0 0.00 0.01 0.01 90 1012.9
20260904110619 72 233 0.0 1.0 0.00 0.01 0.01 90 1012.8
20260904110531 72 233 0.0 1.0 0.00 0.01 0.01 90 1012.8
20260904110426 72 0.0 0.0 0.00 0.01 0.01 90 1012.8
20260904110338 72 0.0 0.0 0.00 0.01 0.01 90 1012.7
20260904110129 72 0.0 0.0 0.00 0.01 0.01 90 1012.9
20260904110025 72 0.0 0.0 0.00 0.01 0.01 90 1012.9
20260904105920 72 233 0.0 1.0 0.00 0.01 0.01 90 1012.9
20260904105816 72 0.0 0.0 0.00 0.01 0.01 89 1012.8
20260904105728 72 0.0 0.0 0.00 0.01 0.01 89 1012.8
20260904105623 72 0.0 0.0 0.00 0.01 0.01 89 1012.9
20260904105519 73 0.0 0.0 0.00 0.01 0.01 89 1012.9
20260904105430 72 0.0 0.0 0.00 0.01 0.01 89 1012.8
20260904105326 72 0.0 0.0 0.00 0.01 0.01 90 1012.9
20260904105221 72 0.0 0.0 0.00 0.01 0.01 89 1012.8
20260904105117 73 233 0.0 1.0 0.00 0.01 0.01 89 1012.8
20260904105029 73 0.0 0.0 0.00 0.01 0.01 89 1012.8
20260904104924 73 0.0 0.0 0.00 0.01 0.01 89 1012.9
20260904104820 73 0.0 0.0 0.00 0.01 0.01 89 1012.8
20260904104715 73 0.0 0.0 0.00 0.01 0.01 89 1012.8
20260904104627 73 233 0.0 1.0 0.00 0.01 0.01 89 1012.7
20260904104523 73 0.0 0.0 0.00 0.01 0.01 88 1012.7
20260904104418 73 0.0 0.0 0.00 0.01 0.01 88 1012.7
20260904104330 73 0.0 0.0 0.00 0.01 0.01 88 1012.7
20260904104225 73 0.0 0.0 0.00 0.01 0.01 89 1012.8
20260904104121 73 0.0 0.0 0.00 0.01 0.01 88 1012.9
20260904104036 73 233 0.0 1.0 0.00 0.01 0.01 89 1012.7
20260904103928 73 233 0.0 1.0 0.00 0.01 0.01 89 1012.7
20260904103843 73 0.0 0.0 0.00 0.01 0.01 89 1012.6
20260904103719 73 0.0 0.0 0.00 0.01 0.01 89 1012.8
20260904103631 73 233 0.0 1.0 0.00 0.01 0.01 89 1012.7
20260904103526 73 0.0 0.0 0.00 0.01 0.01 89 1012.7
20260904103421 73 0.0 0.0 0.00 0.01 0.01 89 1012.7
20260904103316 73 0.0 0.0 0.00 0.01 0.01 89 1012.7
20260904103228 73 0.0 0.0 0.00 0.01 0.01 89 1012.6
20260904103124 73 0.0 0.0 0.00 0.01 0.01 90 1012.7
20260904103040 73 233 1.0 1.0 0.00 0.01 0.01 90 1012.7
20260904102935 73 233 1.0 2.0 0.00 0.01 0.01 89 1012.7
20260904102827 73 233 0.0 1.0 0.00 0.01 0.01 89 1012.6
20260904102722 73 233 1.0 2.0 0.00 0.01 0.01 89 1012.6
20260904102618 73 233 0.0 1.0 0.00 0.01 0.01 89 1012.7
20260904102530 73 233 1.0 2.0 0.00 0.01 0.01 89 1012.6
20260904102425 73 233 1.0 2.0 0.00 0.01 0.01 89 1012.6
20260904102321 73 232 0.0 1.0 0.00 0.01 0.01 88 1012.5
20260904102216 73 232 0.0 1.0 0.00 0.01 0.01 88 1012.7
20260904102128 73 232 0.0 1.0 0.00 0.01 0.01 88 1012.5
20260904102024 73 232 1.0 1.0 0.00 0.01 0.01 88 1012.6
20260904101919 73 0.0 0.0 0.00 0.01 0.01 88 1012.5
20260904101851 73 233 0.0 1.0 0.00 0.01 0.01 88 1012.7
20260904101726 73 233 0.0 1.0 0.00 0.01 0.01 88 1012.6
20260904101642 73 233 0.0 1.0 0.00 0.01 0.01 88 1012.6
20260904101537 73 0.0 0.0 0.00 0.01 0.01 88 1012.5
20260904101429 73 232 1.0 1.0 0.00 0.01 0.01 88 1012.5
20260904101325 73 233 0.0 1.0 0.00 0.01 0.01 88 1012.6
20260904101220 73 233 1.0 1.0 0.00 0.01 0.01 88 1012.7
20260904101116 73 233 0.0 1.0 0.00 0.01 0.01 88 1012.5
20260904101048 73 0.0 0.0 0.00 0.01 0.01 89 1012.5
20260904100923 73 0.0 0.0 0.00 0.01 0.01 89 1012.6
20260904100819 73 233 1.0 1.0 0.00 0.01 0.01 89 1012.5
20260904100751 73 0.0 0.0 0.00 0.01 0.01 89 1012.6
20260904100626 73 234 2.0 3.0 0.00 0.01 0.01 89 1012.7
20260904100522 73 222 1.0 2.0 0.00 0.01 0.01 88 1012.6
20260904100417 73 222 0.0 1.0 0.00 0.01 0.01 89 1012.7
20260904100329 73 222 0.0 1.0 0.00 0.01 0.01 89 1012.7
20260904100224 73 222 0.0 1.0 0.00 0.01 0.01 89 1012.6
20260904100120 73 222 2.0 3.0 0.00 0.01 0.01 89 1012.4
20260904100016 73 200 2.0 4.0 0.00 0.01 0.01 90 1012.4
20260904095927 73 232 2.0 4.0 0.00 0.01 0.01 89 1012.4
20260904095843 73 236 1.0 2.0 0.00 0.01 0.01 89 1012.5
20260904095718 73 236 0.0 1.0 0.00 0.01 0.01 88 1012.3
20260904095629 73 236 0.0 1.0 0.00 0.01 0.01 88 1012.4
20260904095545 73 236 0.0 1.0 0.00 0.01 0.01 88 1012.4
20260904095421 73 0.0 0.0 0.00 0.01 0.01 88 1012.5
20260904095316 73 235 0.0 1.0 0.00 0.01 0.01 88 1012.5
20260904095228 73 236 0.0 1.0 0.00 0.01 0.01 88 1012.5
20260904095123 73 0.0 0.0 0.00 0.01 0.01 88 1012.5
20260904095019 73 235 1.0 2.0 0.00 0.01 0.01 88 1012.4
20260904095011 73 249 0.0 1.0 0.00 0.01 0.01 88 1012.6
20260904094846 73 0.0 0.0 0.00 0.01 0.01 87 1012.5
20260904094721 73 249 0.0 1.0 0.00 0.01 0.01 88 1012.6
20260904094617 73 249 0.0 1.0 0.00 0.01 0.01 88 1012.3
20260904094549 73 249 0.0 1.0 0.00 0.01 0.01 88 1012.5
20260904094424 73 249 0.0 1.0 0.00 0.01 0.01 88 1012.4
20260904094320 73 0.0 0.0 0.00 0.01 0.01 88 1012.4
20260904094215 73 0.0 0.0 0.00 0.01 0.01 89 1012.5
20260904094127 73 249 1.0 1.0 0.00 0.01 0.01 89 1012.4
20260904094022 73 249 0.0 1.0 0.00 0.01 0.01 88 1012.4
20260904093918 73 249 0.0 1.0 0.00 0.01 0.01 88 1012.3
20260904093829 73 249 1.0 2.0 0.00 0.01 0.01 89 1012.4
20260904093725 73 249 0.0 1.0 0.00 0.01 0.01 88 1012.3
20260904093621 73 249 0.0 1.0 0.00 0.01 0.01 88 1012.4
20260904093516 73 249 0.0 1.0 0.00 0.01 0.01 88 1012.3
20260904093448 73 0.0 0.0 0.00 0.01 0.01 88 1012.4
20260904093323 73 250 0.0 1.0 0.00 0.01 0.01 88 1012.4
20260904093219 73 0.0 0.0 0.00 0.01 0.01 89 1012.3
20260904093131 73 249 1.0 2.0 0.00 0.01 0.01 89 1012.3
20260904093046 73 251 0.0 1.0 0.00 0.01 0.01 88 1012.4
20260904092922 73 0.0 0.0 0.00 0.01 0.01 88 1012.5
20260904092817 73 0.0 0.0 0.00 0.01 0.01 88 1012.5
20260904092729 73 0.0 0.0 0.00 0.01 0.01 88 1012.5
20260904092625 73 251 0.0 1.0 0.00 0.01 0.01 88 1012.5
20260904092520 73 251 2.0 2.0 0.00 0.01 0.01 89 1012.4
20260904092416 73 254 1.0 2.0 0.00 0.01 0.01 88 1012.5
20260904092328 73 240 2.0 2.0 0.00 0.01 0.01 88 1012.3
20260904092223 73 243 1.0 1.0 0.00 0.01 0.01 88 1012.4
20260904092119 73 243 1.0 2.0 0.00 0.01 0.01 88 1012.3
20260904092031 73 241 1.0 2.0 0.00 0.01 0.01 88 1012.2
20260904091926 73 243 1.0 2.0 0.00 0.01 0.01 88 1012.3
20260904091821 73 262 0.0 1.0 0.00 0.01 0.01 88 1012.2
20260904091717 73 262 0.0 1.0 0.00 0.01 0.01 88 1012.2
20260904091628 73 262 1.0 2.0 0.00 0.01 0.01 88 1012.3
20260904091524 73 262 1.0 1.0 0.00 0.01 0.01 88 1012.4
20260904091420 73 261 1.0 2.0 0.00 0.01 0.01 88 1012.5
20260904091315 73 261 1.0 1.0 0.00 0.01 0.01 88 1012.4
20260904091227 73 261 1.0 2.0 0.00 0.01 0.01 88 1012.4
20260904091122 73 240 2.0 2.0 0.00 0.01 0.01 88 1012.5
20260904091018 73 228 1.0 2.0 0.00 0.01 0.01 88 1012.5
20260904090930 73 233 1.0 2.0 0.00 0.01 0.01 88 1012.5
20260904090825 73 244 2.0 2.0 0.00 0.02 0.01 88 1012.4
20260904090721 73 247 1.0 3.0 0.00 0.02 0.01 88 1012.3
20260904090617 73 249 1.0 2.0 0.00 0.02 0.01 88 1012.5
20260904090529 73 249 2.0 3.0 0.00 0.02 0.01 88 1012.4
20260904090424 73 238 3.0 3.0 0.00 0.02 0.01 88 1012.4
20260904090319 73 235 2.0 3.0 0.00 0.02 0.01 88 1012.4
20260904090231 73 243 2.0 3.0 0.00 0.02 0.01 88 1012.3
20260904090127 73 242 2.0 3.0 0.00 0.02 0.01 88 1012.4
20260904090022 73 241 1.0 3.0 0.00 0.02 0.01 88 1012.4
20260904085918 73 252 2.0 3.0 0.00 0.02 0.01 88 1012.5
20260904085829 73 254 1.0 2.0 0.00 0.02 0.01 88 1012.4
20260904085725 73 256 1.0 2.0 0.00 0.02 0.01 87 1012.5
20260904085621 73 256 1.0 2.0 0.00 0.02 0.01 87 1012.6
20260904085556 73 257 1.0 2.0 0.00 0.02 0.01 87 1012.5
20260904085428 73 257 1.0 1.0 0.00 0.02 0.01 87 1012.3
20260904085324 73 257 1.0 1.0 0.00 0.02 0.01 87 1012.3
20260904085219 73 257 1.0 2.0 0.00 0.02 0.01 87 1012.4
20260904085131 73 257 1.0 2.0 0.00 0.02 0.01 87 1012.3
20260904085026 73 259 1.0 1.0 0.00 0.02 0.01 87 1012.3
20260904084922 73 259 0.0 1.0 0.00 0.02 0.01 87 1012.4
20260904084817 73 259 1.0 1.0 0.00 0.02 0.01 87 1012.3
20260904084728 73 253 2.0 3.0 0.00 0.02 0.01 87 1012.3
20260904084644 73 248 2.0 3.0 0.00 0.02 0.01 87 1012.3
20260904084520 73 246 1.0 2.0 0.00 0.02 0.01 87 1012.4
20260904084415 73 246 0.0 1.0 0.00 0.02 0.01 87 1012.4
20260904084327 73 245 1.0 2.0 0.00 0.02 0.01 87 1012.4
20260904084222 73 251 1.0 3.0 0.00 0.03 0.01 87 1012.5
20260904084118 73 257 0.0 1.0 0.00 0.03 0.01 87 1012.6
20260904084050 73 257 1.0 2.0 0.00 0.03 0.01 87 1012.4
20260904083945 73 259 1.0 2.0 0.00 0.03 0.01 87 1012.5
20260904083821 73 262 1.0 1.0 0.00 0.03 0.01 87 1012.4
20260904083716 73 263 1.0 3.0 0.00 0.03 0.01 87 1012.5
20260904083628 73 246 3.0 6.0 0.00 0.03 0.01 87 1012.4
20260904083524 73 241 2.0 2.0 0.00 0.03 0.01 87 1012.5
20260904083419 73 242 2.0 4.0 0.00 0.03 0.01 87 1012.5
20260904083410 73 244 1.0 3.0 0.00 0.03 0.01 87 1012.4
20260904083225 73 238 2.0 4.0 0.00 0.03 0.01 87 1012.3
20260904083121 73 231 1.0 2.0 0.00 0.03 0.01 87 1012.4
20260904083016 73 235 1.0 1.0 0.00 0.03 0.01 87 1012.4
20260904082928 73 237 1.0 2.0 0.00 0.03 0.01 87 1012.5
20260904082824 73 252 1.0 2.0 0.00 0.03 0.01 87 1012.5
20260904082720 73 252 1.0 2.0 0.00 0.03 0.01 87 1012.6
20260904082615 73 252 1.0 2.0 0.00 0.03 0.01 87 1012.7
20260904082527 73 254 2.0 2.0 0.00 0.04 0.01 87 1012.6
20260904082422 73 272 1.0 2.0 0.00 0.04 0.01 87 1012.7
20260904082318 73 253 2.0 3.0 0.00 0.04 0.01 87 1012.6
20260904082229 73 246 1.0 3.0 0.00 0.04 0.01 87 1012.5
20260904082145 73 253 1.0 2.0 0.00 0.04 0.01 87 1012.6
20260904082021 73 0.0 0.0 0.00 0.04 0.01 87 1012.5
20260904081916 73 312 0.0 1.0 0.00 0.04 0.01 87 1012.7
20260904081828 73 312 1.0 2.0 0.00 0.04 0.01 87 1012.7
20260904081723 73 313 1.0 2.0 0.00 0.04 0.01 87 1012.6
20260904081619 73 303 2.0 3.0 0.00 0.04 0.01 87 1012.5
20260904081531 73 245 1.0 2.0 0.00 0.04 0.01 87 1012.6
20260904081426 73 245 1.0 2.0 0.00 0.04 0.01 87 1012.5
20260904081322 73 245 2.0 6.0 0.00 0.04 0.01 87 1012.5
20260904081217 73 242 3.0 6.0 0.00 0.04 0.01 87 1012.6
20260904081129 73 232 2.0 3.0 0.00 0.04 0.01 87 1012.4
20260904081025 73 232 3.0 4.0 0.00 0.04 0.01 87 1012.5
20260904080920 73 241 3.0 3.0 0.00 0.04 0.01 87 1012.5
20260904080816 73 246 2.0 3.0 0.00 0.04 0.01 87 1012.4
20260904080728 73 249 2.0 3.0 0.00 0.04 0.01 87 1012.3
20260904080623 73 241 1.0 2.0 0.00 0.04 0.01 87 1012.2
20260904080559 73 243 1.0 3.0 0.00 0.04 0.01 87 1012.2
20260904080430 73 257 1.0 3.0 0.00 0.04 0.01 87 1012.4
20260904080326 73 257 2.0 4.0 0.00 0.04 0.01 88 1012.3
20260904080221 73 267 3.0 4.0 0.00 0.04 0.01 88 1012.4
20260904080117 73 233 2.0 4.0 0.00 0.04 0.01 88 1012.4
20260904080028 73 231 2.0 2.0 0.00 0.04 0.01 88 1012.3
20260904075924 73 227 3.0 3.0 0.00 0.04 0.01 87 1012.3
20260904075819 73 267 3.0 4.0 0.00 0.04 0.01 87 1012.1
20260904075731 73 239 1.0 2.0 0.00 0.04 0.01 87 1012.2
20260904075626 73 238 1.0 2.0 0.00 0.04 0.01 87 1012.2
20260904075522 73 236 2.0 3.0 0.00 0.04 0.01 87 1012.4
20260904075417 73 232 2.0 3.0 0.00 0.04 0.01 87 1012.3
20260904075329 73 246 1.0 2.0 0.00 0.04 0.01 87 1012.1
20260904075225 73 245 1.0 1.0 0.00 0.04 0.01 87 1012.1
20260904075120 73 244 0.0 1.0 0.00 0.04 0.01 87 1012.1
20260904075016 73 241 1.0 3.0 0.00 0.04 0.01 87 1012.4
20260904074928 73 269 1.0 2.0 0.00 0.04 0.01 87 1012.3
20260904074823 73 269 1.0 2.0 0.00 0.04 0.01 86 1012.3
20260904074719 73 269 0.0 1.0 0.00 0.04 0.01 86 1012.3
20260904074630 73 269 1.0 1.0 0.00 0.04 0.01 86 1012.2
20260904074526 73 269 1.0 2.0 0.00 0.04 0.01 87 1012.4
20260904074422 73 266 2.0 3.0 0.00 0.04 0.01 86 1012.2
20260904074317 73 255 1.0 2.0 0.00 0.04 0.01 86 1012.1
20260904074229 73 255 0.0 2.0 0.00 0.04 0.01 86 1012.3
20260904074124 73 255 1.0 1.0 0.00 0.04 0.01 86 1012.3
20260904074020 73 255 1.0 1.0 0.00 0.04 0.01 86 1012.0
20260904073935 73 259 1.0 2.0 0.00 0.04 0.01 86 1012.3
20260904073847 73 266 1.0 2.0 0.00 0.04 0.01 86 1012.3
20260904073722 73 270 2.0 3.0 0.00 0.04 0.01 86 1012.2
20260904073638 73 254 1.0 1.0 0.00 0.04 0.01 86 1012.3
20260904073529 73 254 1.0 1.0 0.00 0.04 0.01 86 1012.2
20260904073425 73 255 1.0 1.0 0.00 0.04 0.01 86 1012.3
20260904073320 73 258 1.0 2.0 0.00 0.04 0.01 86 1012.1
20260904073216 73 253 3.0 4.0 0.00 0.04 0.01 86 1012.3
20260904073128 73 247 3.0 4.0 0.00 0.04 0.01 86 1012.1
20260904073023 73 237 1.0 2.0 0.00 0.04 0.01 85 1011.9
20260904072919 73 237 1.0 3.0 0.00 0.04 0.01 85 1012.0
20260904072831 73 240 2.0 3.0 0.00 0.04 0.01 85 1012.1
20260904072726 73 243 1.0 2.0 0.00 0.04 0.01 85 1012.0
20260904072622 73 242 1.0 2.0 0.00 0.04 0.01 85 1012.1
20260904072517 73 242 2.0 2.0 0.00 0.04 0.01 86 1012.0
20260904072429 73 242 2.0 2.0 0.00 0.04 0.01 85 1012.0
20260904072325 73 243 1.0 2.0 0.00 0.04 0.01 85 1012.0
20260904072220 73 243 0.0 1.0 0.00 0.04 0.01 85 1012.1
20260904072116 73 0.0 0.0 0.00 0.05 0.01 85 1011.9
20260904072048 73 245 0.0 1.0 0.00 0.05 0.01 85 1012.0
20260904071943 73 245 1.0 2.0 0.00 0.05 0.01 85 1012.1
20260904071819 73 265 1.0 2.0 0.00 0.05 0.01 85 1012.0
20260904071750 74 266 2.0 2.0 0.01 0.05 0.01 85 1012.0
20260904071626 73 259 2.0 3.0 0.01 0.05 0.01 85 1012.0
20260904071522 74 244 2.0 4.0 0.01 0.05 0.01 85 1012.0
20260904071417 74 244 1.0 2.0 0.01 0.05 0.01 85 1012.0
20260904071329 74 238 2.0 3.0 0.01 0.05 0.01 85 1012.1
20260904071224 74 247 1.0 2.0 0.01 0.05 0.01 85 1012.2
20260904071140 74 239 1.0 2.0 0.01 0.05 0.01 85 1012.1
20260904071015 74 225 1.0 4.0 0.01 0.05 0.01 85 1012.1
20260904070927 74 221 1.0 3.0 0.01 0.06 0.01 84 1012.0
20260904070843 74 217 0.0 1.0 0.01 0.06 0.01 84 1012.0
20260904070718 74 216 0.0 1.0 0.01 0.06 0.01 85 1011.9
20260904070630 74 216 1.0 2.0 0.01 0.06 0.01 85 1012.0
20260904070545 74 218 1.0 1.0 0.01 0.06 0.01 85 1012.1
20260904070421 74 218 1.0 1.0 0.01 0.07 0.01 85 1012.3
20260904070337 74 218 1.0 1.0 0.01 0.07 0.01 85 1012.1
20260904070248 74 218 1.0 1.0 0.01 0.07 0.01 84 1012.2
20260904070124 74 0.0 0.0 0.01 0.08 0.01 84 1012.3
20260904070039 74 0.0 0.0 0.01 0.08 0.01 84 1012.1
20260904065915 74 218 1.0 2.0 0.01 0.08 0.01 85 1012.1
20260904065827 74 218 0.0 2.0 0.01 0.08 0.01 83 1012.2
20260904065722 74 240 0.0 1.0 0.01 0.09 0.01 83 1012.3
20260904065638 74 0.0 0.0 0.01 0.09 0.01 83 1012.1
20260904065530 74 0.0 0.0 0.01 0.09 0.01 83 1012.2
20260904065425 74 0.0 0.0 0.01 0.09 0.01 84 1012.2
20260904065321 74 0.0 0.0 0.01 0.09 0.01 84 1012.3
20260904065216 75 241 1.0 1.0 0.01 0.09 0.01 84 1012.1
20260904065128 75 241 0.0 1.0 0.01 0.09 0.01 84 1012.2
20260904065024 75 242 0.0 1.0 0.01 0.10 0.01 83 1012.1
20260904064920 75 242 1.0 1.0 0.01 0.10 0.01 83 1012.3
20260904064815 75 242 0.0 1.0 0.01 0.10 0.01 84 1012.2
20260904064727 75 0.0 0.0 0.01 0.10 0.01 83 1012.1
20260904064622 75 0.0 0.0 0.01 0.10 0.01 84 1012.1
20260904064518 75 242 1.0 1.0 0.01 0.11 0.01 84 1012.1
20260904064430 75 245 1.0 1.0 0.01 0.11 0.01 83 1012.3
20260904064325 75 249 1.0 2.0 0.01 0.11 0.01 83 1012.3
20260904064221 75 249 0.0 1.0 0.01 0.11 0.01 83 1012.2
20260904064116 75 249 0.0 1.0 0.01 0.11 0.01 83 1012.3
20260904064028 75 0.0 0.0 0.01 0.11 0.01 83 1012.2
20260904063924 75 249 0.0 1.0 0.01 0.11 0.01 82 1012.1
20260904063839 75 249 0.0 1.0 0.01 0.11 0.01 82 1012.2
20260904063731 75 249 1.0 1.0 0.01 0.11 0.01 82 1012.2
20260904063626 75 249 1.0 1.0 0.01 0.11 0.01 81 1012.1
20260904063542 75 250 0.0 1.0 0.01 0.11 0.01 81 1012.2
20260904063417 76 0.0 0.0 0.01 0.11 0.01 82 1012.3
20260904063349 76 250 1.0 1.0 0.01 0.12 0.01 82 1012.1
20260904063225 76 250 1.0 2.0 0.01 0.12 0.01 81 1012.0
20260904063140 76 251 1.0 1.0 0.01 0.12 0.01 81 1012.0
20260904063016 76 252 1.0 2.0 0.01 0.12 0.01 81 1012.3
20260904062927 76 252 1.0 2.0 0.01 0.12 0.01 81 1012.4
20260904062823 76 251 2.0 2.0 0.01 0.12 0.01 80 1012.3
20260904062719 76 251 1.0 3.0 0.01 0.12 0.01 79 1012.1
20260904062630 76 252 0.0 1.0 0.01 0.12 0.01 79 1012.2
20260904062525 76 253 1.0 2.0 0.01 0.13 0.01 79 1012.4
20260904062441 76 253 0.0 1.0 0.01 0.13 0.01 80 1012.3
20260904062337 76 257 2.0 3.0 0.01 0.13 0.01 80 1012.1
20260904062228 76 280 2.0 4.0 0.01 0.13 0.01 79 1012.4
20260904062124 77 299 3.0 4.0 0.01 0.13 0.01 79 1012.5
20260904062020 77 238 3.0 7.0 0.01 0.13 0.01 78 1012.6
20260904061915 77 248 6.0 9.0 0.01 0.13 0.01 78 1012.6
20260904061827 77 247 5.0 9.0 0.01 0.13 0.01 77 1012.7